Time,TemperatureF,DewpointF,PressureIn,WindDirection,WindDirectionDegrees,WindSpeedMPH,WindSpeedGustMPH,Humidity,HourlyPrecipIn,Conditions,Clouds,dailyrainin,SoftwareType,DateUTC
2013-05-03 00:00:00,42.9,33.4,30.36,North,5,9.0,13.0,69,0.00,,SKC,0.20,VWS V14.01,2013-05-03 05:00:00,
2013-05-03 00:01:00,42.9,33.4,30.36,North,360,9.0,13.0,69,0.00,,SKC,0.20,VWS V14.01,2013-05-03 05:01:00,
2013-05-03 00:02:00,42.9,33.4,30.36,NW,304,4.0,12.0,69,0.00,,SKC,0.00,VWS V14.01,2013-05-03 05:02:00,
2013-05-03 00:03:00,42.9,33.4,30.36,NNW,346,7.0,12.0,69,0.00,,SKC,0.00,VWS V14.01,2013-05-03 05:03:00,
2013-05-03 00:04:00,42.9,33.4,30.36,NNW,342,4.0,10.0,69,0.00,,SKC,0.00,VWS V14.01,2013-05-03 05:04:00,
2013-05-03 00:05:00,42.8,33.7,30.36,NNW,345,2.0,8.0,70,0.00,,SKC,0.00,VWS V14.01,2013-05-03 05:05:00,
2013-05-03 00:06:00,42.8,33.7,30.36,NNW,345,2.0,8.0,70,0.00,,SKC,0.00,VWS V14.01,2013-05-03 05:06:00,
2013-05-03 00:07:00,42.8,33.7,30.36,North,360,14.0,14.0,70,0.00,,SKC,0.00,VWS V14.01,2013-05-03 05:07:00,
2013-05-03 00:08:00,42.7,33.6,30.36,NNW,346,5.0,14.0,70,0.00,,SKC,0.00,VWS V14.01,2013-05-03 05:08:00,
2013-05-03 00:09:00,42.7,33.2,30.36,NNW,328,6.0,6.0,69,0.00,,SKC,0.00,VWS V14.01,2013-05-03 05:09:00,
2013-05-03 00:10:00,42.7,33.6,30.36,North,355,5.0,14.0,70,0.00,,SKC,0.00,VWS V14.01,2013-05-03 05:10:00,
2013-05-03 00:11:00,42.7,33.6,30.36,North,355,5.0,14.0,70,0.00,,SKC,0.00,VWS V14.01,2013-05-03 05:11:00,
2013-05-03 00:12:00,42.7,33.6,30.36,NNE,22,12.0,15.0,70,0.00,,SKC,0.00,VWS V14.01,2013-05-03 05:12:00,
2013-05-03 00:13:00,42.7,33.6,30.36,NNW,344,6.0,13.0,70,0.00,,SKC,0.00,VWS V14.01,2013-05-03 05:13:00,
2013-05-03 00:14:00,42.7,33.6,30.36,North,10,4.0,8.0,70,0.00,,SKC,0.00,VWS V14.01,2013-05-03 05:14:00,
2013-05-03 00:15:00,42.7,33.6,30.36,NNW,346,3.0,10.0,70,0.00,,SKC,0.00,VWS V14.01,2013-05-03 05:15:00,
2013-05-03 00:16:00,42.7,33.6,30.36,NNW,346,3.0,10.0,70,0.00,,SKC,0.00,VWS V14.01,2013-05-03 05:16:00,
2013-05-03 00:17:00,42.7,33.6,30.36,North,355,7.0,11.0,70,0.00,,SKC,0.00,VWS V14.01,2013-05-03 05:17:00,
2013-05-03 00:18:00,42.6,33.5,30.36,NNE,13,12.0,12.0,70,0.00,,SKC,0.00,VWS V14.01,2013-05-03 05:18:00,
2013-05-03 00:19:00,42.6,33.5,30.36,NNW,332,4.0,12.0,70,0.00,,SKC,0.00,VWS V14.01,2013-05-03 05:19:00,
2013-05-03 00:20:00,42.6,33.5,30.36,NW,326,10.0,11.0,70,0.00,,SKC,0.00,VWS V14.01,2013-05-03 05:20:00,
2013-05-03 00:21:00,42.6,33.5,30.36,NW,326,10.0,11.0,70,0.00,,SKC,0.00,VWS V14.01,2013-05-03 05:21:00,
2013-05-03 00:22:00,42.6,33.5,30.36,NW,321,5.0,15.0,70,0.00,,SKC,0.00,VWS V14.01,2013-05-03 05:22:00,
2013-05-03 00:23:00,42.6,33.5,30.36,NNW,346,10.0,10.0,70,0.00,,SKC,0.00,VWS V14.01,2013-05-03 05:23:00,
2013-05-03 00:24:00,42.5,33.4,30.36,NNW,344,5.0,10.0,70,0.00,,SKC,0.00,VWS V14.01,2013-05-03 05:24:00,
2013-05-03 00:25:00,42.5,33.4,30.36,NNW,333,4.0,12.0,70,0.00,,SKC,0.00,VWS V14.01,2013-05-03 05:25:00,
2013-05-03 00:26:00,42.5,33.4,30.36,NNW,333,4.0,12.0,70,0.00,,SKC,0.00,VWS V14.01,2013-05-03 05:26:00,
2013-05-03 00:27:00,42.4,33.3,30.36,North,360,4.0,9.0,70,0.00,,SKC,0.00,VWS V14.01,2013-05-03 05:27:00,
2013-05-03 00:28:00,42.4,33.3,30.36,NNW,334,15.0,15.0,70,0.00,,SKC,0.00,VWS V14.01,2013-05-03 05:28:00,
2013-05-03 00:29:00,42.4,33.3,30.36,North,360,5.0,15.0,70,0.00,,SKC,0.00,VWS V14.01,2013-05-03 05:29:00,
2013-05-03 00:30:00,42.4,33.3,30.36,North,350,6.0,11.0,70,0.00,,SKC,0.00,VWS V14.01,2013-05-03 05:30:00,
2013-05-03 00:31:00,42.4,33.3,30.36,North,350,6.0,11.0,70,0.00,,SKC,0.00,VWS V14.01,2013-05-03 05:31:00,
2013-05-03 00:32:00,42.4,33.7,30.36,NNW,341,3.0,10.0,71,0.00,,SKC,0.00,VWS V14.01,2013-05-03 05:32:00,
2013-05-03 00:33:00,42.4,33.7,30.36,NW,321,3.0,10.0,71,0.00,,SKC,0.00,VWS V14.01,2013-05-03 05:33:00,
2013-05-03 00:34:00,42.4,33.7,30.36,North,355,7.0,8.0,71,0.00,,SKC,0.00,VWS V14.01,2013-05-03 05:34:00,
2013-05-03 00:35:00,42.3,33.6,30.36,NNW,336,4.0,9.0,71,0.00,,SKC,0.00,VWS V14.01,2013-05-03 05:35:00,
2013-05-03 00:36:00,42.3,33.6,30.36,NNW,336,4.0,9.0,71,0.00,,SKC,0.00,VWS V14.01,2013-05-03 05:36:00,
2013-05-03 00:37:00,42.3,33.6,30.36,North,5,5.0,10.0,71,0.00,,SKC,0.00,VWS V14.01,2013-05-03 05:37:00,
2013-05-03 00:38:00,42.3,33.6,30.36,NW,320,3.0,10.0,71,0.00,,SKC,0.00,VWS V14.01,2013-05-03 05:38:00,
2013-05-03 00:39:00,42.2,33.5,30.36,NNE,13,8.0,9.0,71,0.00,,SKC,0.00,VWS V14.01,2013-05-03 05:39:00,
2013-05-03 00:40:00,42.2,33.5,30.36,NNW,344,5.0,11.0,71,0.00,,SKC,0.00,VWS V14.01,2013-05-03 05:40:00,
2013-05-03 00:41:00,42.2,33.5,30.36,NNE,21,9.0,9.0,71,0.00,,SKC,0.00,VWS V14.01,2013-05-03 05:41:00,
2013-05-03 00:42:00,42.2,33.5,30.36,NNW,335,4.0,9.0,71,0.00,,SKC,0.00,VWS V14.01,2013-05-03 05:42:00,
2013-05-03 00:43:00,42.2,33.5,30.36,North,5,9.0,11.0,71,0.00,,SKC,0.00,VWS V14.01,2013-05-03 05:43:00,
2013-05-03 00:44:00,42.2,33.5,30.36,NNW,343,5.0,13.0,71,0.00,,SKC,0.00,VWS V14.01,2013-05-03 05:44:00,
2013-05-03 00:45:00,42.2,33.5,30.36,North,351,4.0,14.0,71,0.00,,SKC,0.00,VWS V14.01,2013-05-03 05:45:00,
2013-05-03 00:46:00,42.2,33.5,30.36,NNE,28,6.0,6.0,71,0.00,,SKC,0.00,VWS V14.01,2013-05-03 05:46:00,
2013-05-03 00:47:00,42.2,33.5,30.36,NNW,341,8.0,13.0,71,0.00,,SKC,0.00,VWS V14.01,2013-05-03 05:47:00,
2013-05-03 00:48:00,42.2,33.5,30.36,NNW,341,1.0,11.0,71,0.00,,SKC,0.00,VWS V14.01,2013-05-03 05:48:00,
2013-05-03 00:49:00,42.2,33.5,30.36,NNW,346,4.0,13.0,71,0.00,,SKC,0.00,VWS V14.01,2013-05-03 05:49:00,
2013-05-03 00:50:00,42.2,33.5,30.36,North,360,9.0,10.0,71,0.00,,SKC,0.00,VWS V14.01,2013-05-03 05:50:00,
2013-05-03 00:51:00,42.2,33.5,30.36,NE,34,9.0,10.0,71,0.00,,SKC,0.00,VWS V14.01,2013-05-03 05:51:00,
2013-05-03 00:52:00,42.2,33.5,30.36,North,360,4.0,12.0,71,0.00,,SKC,0.00,VWS V14.01,2013-05-03 05:52:00,
2013-05-03 00:53:00,42.2,33.5,30.36,North,350,5.0,7.0,71,0.00,,SKC,0.00,VWS V14.01,2013-05-03 05:53:00,
2013-05-03 00:54:00,42.2,33.5,30.36,NNE,28,7.0,12.0,71,0.00,,SKC,0.00,VWS V14.01,2013-05-03 05:54:00,
2013-05-03 00:55:00,42.2,33.5,30.36,North,360,10.0,11.0,71,0.00,,SKC,0.00,VWS V14.01,2013-05-03 05:55:00,
2013-05-03 00:56:00,42.2,33.5,30.35,NNW,342,9.0,13.0,71,0.00,,SKC,0.00,VWS V14.01,2013-05-03 05:56:00,
2013-05-03 00:57:00,42.1,33.4,30.35,North,355,5.0,10.0,71,0.00,,SKC,0.00,VWS V14.01,2013-05-03 05:57:00,
2013-05-03 00:58:00,42.1,33.4,30.36,NNW,335,6.0,12.0,71,0.00,,SKC,0.00,VWS V14.01,2013-05-03 05:58:00,
2013-05-03 00:59:00,42.1,33.4,30.35,NNW,327,12.0,12.0,71,0.00,,SKC,0.00,VWS V14.01,2013-05-03 05:59:00,
2013-05-03 01:00:00,42.1,33.4,30.35,NNW,338,9.0,13.0,71,0.00,,SKC,0.00,VWS V14.01,2013-05-03 06:00:00,
2013-05-03 01:01:00,42.1,33.4,30.35,NNW,338,4.0,9.0,71,0.00,,SKC,0.00,VWS V14.01,2013-05-03 06:01:00,
2013-05-03 01:02:00,42.1,33.4,30.35,NW,323,6.0,10.0,71,0.00,,SKC,0.00,VWS V14.01,2013-05-03 06:02:00,
2013-05-03 01:03:00,42.1,33.4,30.35,North,360,6.0,13.0,71,0.00,,SKC,0.00,VWS V14.01,2013-05-03 06:03:00,
2013-05-03 01:04:00,42.1,33.4,30.35,NNW,341,13.0,13.0,71,0.00,,SKC,0.00,VWS V14.01,2013-05-03 06:04:00,
2013-05-03 01:05:00,42.1,33.4,30.35,NNE,15,9.0,13.0,71,0.00,,SKC,0.00,VWS V14.01,2013-05-03 06:05:00,
2013-05-03 01:06:00,42.1,33.4,30.35,NW,313,5.0,9.0,71,0.00,,SKC,0.00,VWS V14.01,2013-05-03 06:06:00,
2013-05-03 01:07:00,42.1,33.4,30.35,NW,304,2.0,10.0,71,0.00,,SKC,0.00,VWS V14.01,2013-05-03 06:07:00,
2013-05-03 01:08:00,42.1,33.4,30.35,NNW,348,4.0,11.0,71,0.00,,SKC,0.00,VWS V14.01,2013-05-03 06:08:00,
2013-05-03 01:09:00,42.1,33.4,30.35,North,355,9.0,12.0,71,0.00,,SKC,0.00,VWS V14.01,2013-05-03 06:09:00,
2013-05-03 01:10:00,42.2,33.5,30.36,North,355,4.0,12.0,71,0.00,,SKC,0.00,VWS V14.01,2013-05-03 06:10:00,
2013-05-03 01:11:00,42.1,33.4,30.36,NNW,346,6.0,6.0,71,0.00,,SKC,0.00,VWS V14.01,2013-05-03 06:11:00,
2013-05-03 01:12:00,42.2,33.5,30.35,NNW,344,3.0,12.0,71,0.00,,SKC,0.00,VWS V14.01,2013-05-03 06:12:00,
2013-05-03 01:13:00,42.2,33.5,30.35,NNE,19,10.0,12.0,71,0.00,,SKC,0.00,VWS V14.01,2013-05-03 06:13:00,
2013-05-03 01:14:00,42.2,33.5,30.36,North,5,4.0,12.0,71,0.00,,SKC,0.00,VWS V14.01,2013-05-03 06:14:00,
2013-05-03 01:15:00,42.2,33.1,30.36,NNE,13,10.0,15.0,70,0.00,,SKC,0.00,VWS V14.01,2013-05-03 06:15:00,
2013-05-03 01:16:00,42.2,33.1,30.36,NNW,345,5.0,10.0,70,0.00,,SKC,0.00,VWS V14.01,2013-05-03 06:16:00,
2013-05-03 01:17:00,42.2,33.1,30.36,NNE,31,7.0,11.0,70,0.00,,SKC,0.00,VWS V14.01,2013-05-03 06:17:00,
2013-05-03 01:18:00,42.2,33.1,30.36,North,360,8.0,11.0,70,0.00,,SKC,0.00,VWS V14.01,2013-05-03 06:18:00,
2013-05-03 01:19:00,42.2,33.1,30.36,North,5,7.0,8.0,70,0.00,,SKC,0.00,VWS V14.01,2013-05-03 06:19:00,
2013-05-03 01:20:00,42.2,33.1,30.36,North,355,9.0,14.0,70,0.00,,SKC,0.00,VWS V14.01,2013-05-03 06:20:00,
2013-05-03 01:21:00,42.1,33.0,30.35,NW,310,3.0,9.0,70,0.00,,SKC,0.00,VWS V14.01,2013-05-03 06:21:00,
2013-05-03 01:22:00,42.2,33.1,30.36,NW,307,3.0,11.0,70,0.00,,SKC,0.00,VWS V14.01,2013-05-03 06:22:00,
2013-05-03 01:23:00,42.2,33.1,30.36,North,355,4.0,6.0,70,0.00,,SKC,0.00,VWS V14.01,2013-05-03 06:23:00,
2013-05-03 01:24:00,42.2,33.1,30.36,NW,309,2.0,8.0,70,0.00,,SKC,0.00,VWS V14.01,2013-05-03 06:24:00,
2013-05-03 01:25:00,42.1,33.0,30.36,NNW,348,6.0,11.0,70,0.00,,SKC,0.00,VWS V14.01,2013-05-03 06:25:00,
2013-05-03 01:26:00,42.1,33.0,30.36,NNE,26,9.0,9.0,70,0.00,,SKC,0.00,VWS V14.01,2013-05-03 06:26:00,
2013-05-03 01:27:00,42.1,33.0,30.36,NNE,14,8.0,9.0,70,0.00,,SKC,0.00,VWS V14.01,2013-05-03 06:27:00,
2013-05-03 01:28:00,42.1,33.0,30.35,NNW,341,6.0,8.0,70,0.00,,SKC,0.00,VWS V14.01,2013-05-03 06:28:00,
2013-05-03 01:29:00,42.1,33.0,30.36,NNE,13,12.0,15.0,70,0.00,,SKC,0.00,VWS V14.01,2013-05-03 06:29:00,
2013-05-03 01:30:00,42.1,33.0,30.36,North,355,6.0,12.0,70,0.00,,SKC,0.00,VWS V14.01,2013-05-03 06:30:00,
2013-05-03 01:31:00,42.1,33.0,30.36,NW,319,5.0,9.0,70,0.00,,SKC,0.00,VWS V14.01,2013-05-03 06:31:00,
2013-05-03 01:32:00,42.1,33.0,30.36,North,360,13.0,14.0,70,0.00,,SKC,0.00,VWS V14.01,2013-05-03 06:32:00,
2013-05-03 01:33:00,42.1,33.0,30.35,North,355,7.0,13.0,70,0.00,,SKC,0.00,VWS V14.01,2013-05-03 06:33:00,
2013-05-03 01:34:00,42.1,33.0,30.35,North,355,1.0,12.0,70,0.00,,SKC,0.00,VWS V14.01,2013-05-03 06:34:00,
2013-05-03 01:35:00,42.1,33.0,30.35,NW,318,3.0,11.0,70,0.00,,SKC,0.00,VWS V14.01,2013-05-03 06:35:00,
2013-05-03 01:36:00,42.1,33.0,30.35,NW,325,4.0,4.0,70,0.00,,SKC,0.00,VWS V14.01,2013-05-03 06:36:00,
2013-05-03 01:37:00,42.0,32.9,30.35,North,360,9.0,11.0,70,0.00,,SKC,0.00,VWS V14.01,2013-05-03 06:37:00,
2013-05-03 01:38:00,42.1,33.0,30.35,NNW,344,4.0,12.0,70,0.00,,SKC,0.00,VWS V14.01,2013-05-03 06:38:00,
2013-05-03 01:39:00,42.0,32.9,30.35,NNW,344,7.0,10.0,70,0.00,,SKC,0.00,VWS V14.01,2013-05-03 06:39:00,
2013-05-03 01:40:00,42.0,32.9,30.35,North,360,5.0,13.0,70,0.00,,SKC,0.00,VWS V14.01,2013-05-03 06:40:00,
2013-05-03 01:41:00,42.0,32.9,30.35,North,350,4.0,5.0,70,0.00,,SKC,0.00,VWS V14.01,2013-05-03 06:41:00,
2013-05-03 01:42:00,42.0,32.9,30.35,NW,325,15.0,15.0,70,0.00,,SKC,0.00,VWS V14.01,2013-05-03 06:42:00,
2013-05-03 01:43:00,42.0,32.9,30.35,NNW,330,3.0,15.0,70,0.00,,SKC,0.00,VWS V14.01,2013-05-03 06:43:00,
2013-05-03 01:44:00,42.0,32.9,30.35,NNW,345,9.0,11.0,70,0.00,,SKC,0.00,VWS V14.01,2013-05-03 06:44:00,
2013-05-03 01:45:00,42.0,32.9,30.35,NNE,14,10.0,13.0,70,0.00,,SKC,0.00,VWS V14.01,2013-05-03 06:45:00,
2013-05-03 01:46:00,42.0,32.9,30.35,North,350,3.0,10.0,70,0.00,,SKC,0.00,VWS V14.01,2013-05-03 06:46:00,
2013-05-03 01:47:00,42.0,32.9,30.35,North,351,9.0,18.0,70,0.00,,SKC,0.00,VWS V14.01,2013-05-03 06:47:00,
2013-05-03 01:48:00,42.0,32.9,30.35,North,355,7.0,14.0,70,0.00,,SKC,0.00,VWS V14.01,2013-05-03 06:48:00,
2013-05-03 01:49:00,42.0,32.9,30.35,NW,326,7.0,11.0,70,0.00,,SKC,0.00,VWS V14.01,2013-05-03 06:49:00,
2013-05-03 01:50:00,42.0,32.9,30.35,North,350,14.0,16.0,70,0.00,,SKC,0.00,VWS V14.01,2013-05-03 06:50:00,
2013-05-03 01:51:00,42.0,32.9,30.35,NNW,334,13.0,14.0,70,0.00,,SKC,0.00,VWS V14.01,2013-05-03 06:51:00,
2013-05-03 01:52:00,42.0,32.9,30.35,NNW,347,9.0,15.0,70,0.00,,SKC,0.00,VWS V14.01,2013-05-03 06:52:00,
2013-05-03 01:53:00,42.0,32.9,30.35,NNW,344,6.0,19.0,70,0.00,,SKC,0.00,VWS V14.01,2013-05-03 06:53:00,
2013-05-03 01:54:00,42.0,32.9,30.35,NNW,348,5.0,13.0,70,0.00,,SKC,0.00,VWS V14.01,2013-05-03 06:54:00,
2013-05-03 01:55:00,42.0,32.9,30.35,NNW,338,14.0,16.0,70,0.00,,SKC,0.00,VWS V14.01,2013-05-03 06:55:00,
2013-05-03 01:56:00,42.0,32.9,30.36,NE,34,9.0,14.0,70,0.00,,SKC,0.00,VWS V14.01,2013-05-03 06:56:00,
2013-05-03 01:57:00,41.9,32.8,30.36,NW,326,2.0,11.0,70,0.00,,SKC,0.00,VWS V14.01,2013-05-03 06:57:00,
2013-05-03 01:58:00,41.9,32.8,30.36,North,351,7.0,15.0,70,0.00,,SKC,0.00,VWS V14.01,2013-05-03 06:58:00,
2013-05-03 01:59:00,41.8,32.8,30.36,NNE,30,10.0,12.0,70,0.00,,SKC,0.00,VWS V14.01,2013-05-03 06:59:00,
2013-05-03 02:00:00,41.8,32.8,30.36,NNW,336,7.0,12.0,70,0.00,,SKC,0.00,VWS V14.01,2013-05-03 07:00:00,
2013-05-03 02:01:00,41.8,32.8,30.36,NNW,342,3.0,7.0,70,0.00,,SKC,0.00,VWS V14.01,2013-05-03 07:01:00,
2013-05-03 02:02:00,41.7,33.0,30.36,North,351,4.0,10.0,71,0.00,,SKC,0.00,VWS V14.01,2013-05-03 07:02:00,
2013-05-03 02:03:00,41.6,32.9,30.36,North,350,7.0,12.0,71,0.00,,SKC,0.00,VWS V14.01,2013-05-03 07:03:00,
2013-05-03 02:04:00,41.6,32.9,30.36,NNW,341,7.0,10.0,71,0.00,,SKC,0.00,VWS V14.01,2013-05-03 07:04:00,
2013-05-03 02:05:00,41.6,32.9,30.36,North,360,4.0,7.0,71,0.00,,SKC,0.00,VWS V14.01,2013-05-03 07:05:00,
2013-05-03 02:06:00,41.6,32.9,30.36,North,360,3.0,5.0,71,0.00,,SKC,0.00,VWS V14.01,2013-05-03 07:06:00,
2013-05-03 02:07:00,41.5,32.8,30.36,North,360,4.0,9.0,71,0.00,,SKC,0.00,VWS V14.01,2013-05-03 07:07:00,
2013-05-03 02:08:00,41.4,32.7,30.36,WNW,292,10.0,13.0,71,0.00,,SKC,0.00,VWS V14.01,2013-05-03 07:08:00,
2013-05-03 02:09:00,41.4,32.7,30.36,NNW,335,5.0,10.0,71,0.00,,SKC,0.00,VWS V14.01,2013-05-03 07:09:00,
2013-05-03 02:10:00,41.4,32.7,30.36,North,350,7.0,7.0,71,0.00,,SKC,0.00,VWS V14.01,2013-05-03 07:10:00,
2013-05-03 02:11:00,41.3,32.6,30.36,NNW,341,3.0,7.0,71,0.00,,SKC,0.00,VWS V14.01,2013-05-03 07:11:00,
2013-05-03 02:12:00,41.3,32.6,30.36,NNW,327,4.0,10.0,71,0.00,,SKC,0.00,VWS V14.01,2013-05-03 07:12:00,
2013-05-03 02:13:00,41.2,32.5,30.36,NNW,337,9.0,12.0,71,0.00,,SKC,0.00,VWS V14.01,2013-05-03 07:13:00,
2013-05-03 02:14:00,41.2,32.5,30.36,NNW,344,4.0,11.0,71,0.00,,SKC,0.00,VWS V14.01,2013-05-03 07:14:00,
2013-05-03 02:15:00,41.2,32.5,30.36,North,355,4.0,10.0,71,0.00,,SKC,0.00,VWS V14.01,2013-05-03 07:15:00,
2013-05-03 02:16:00,41.2,32.5,30.36,North,350,1.0,4.0,71,0.00,,SKC,0.00,VWS V14.01,2013-05-03 07:16:00,
2013-05-03 02:17:00,41.1,32.4,30.36,North,9,6.0,7.0,71,0.00,,SKC,0.00,VWS V14.01,2013-05-03 07:17:00,
2013-05-03 02:18:00,41.1,32.4,30.36,WNW,297,5.0,12.0,71,0.00,,SKC,0.00,VWS V14.01,2013-05-03 07:18:00,
2013-05-03 02:19:00,41.1,32.4,30.36,NNW,347,4.0,10.0,71,0.00,,SKC,0.00,VWS V14.01,2013-05-03 07:19:00,
2013-05-03 02:20:00,41.1,32.8,30.36,NNW,340,2.0,6.0,72,0.00,,SKC,0.00,VWS V14.01,2013-05-03 07:20:00,
2013-05-03 02:21:00,41.1,32.8,30.36,NNW,344,4.0,5.0,72,0.00,,SKC,0.00,VWS V14.01,2013-05-03 07:21:00,
2013-05-03 02:22:00,41.0,32.7,30.36,North,355,11.0,11.0,72,0.00,,SKC,0.00,VWS V14.01,2013-05-03 07:22:00,
2013-05-03 02:23:00,41.0,32.7,30.36,North,355,4.0,11.0,72,0.00,,SKC,0.00,VWS V14.01,2013-05-03 07:23:00,
2013-05-03 02:24:00,41.0,32.7,30.36,NNW,344,3.0,5.0,72,0.00,,SKC,0.00,VWS V14.01,2013-05-03 07:24:00,
2013-05-03 02:25:00,41.0,32.7,30.36,North,355,5.0,6.0,72,0.00,,SKC,0.00,VWS V14.01,2013-05-03 07:25:00,
2013-05-03 02:26:00,41.0,32.7,30.36,NNW,333,1.0,5.0,72,0.00,,SKC,0.00,VWS V14.01,2013-05-03 07:26:00,
2013-05-03 02:27:00,40.9,32.6,30.36,North,355,4.0,12.0,72,0.00,,SKC,0.00,VWS V14.01,2013-05-03 07:27:00,
2013-05-03 02:28:00,40.9,32.6,30.36,North,5,6.0,9.0,72,0.00,,SKC,0.00,VWS V14.01,2013-05-03 07:28:00,
2013-05-03 02:29:00,40.9,32.6,30.36,NW,308,3.0,7.0,72,0.00,,SKC,0.00,VWS V14.01,2013-05-03 07:29:00,
2013-05-03 02:30:00,40.9,32.6,30.36,NW,319,2.0,3.0,72,0.00,,SKC,0.00,VWS V14.01,2013-05-03 07:30:00,
2013-05-03 02:31:00,40.9,32.6,30.36,NW,318,9.0,9.0,72,0.00,,SKC,0.00,VWS V14.01,2013-05-03 07:31:00,
2013-05-03 02:32:00,40.8,32.5,30.36,NNW,334,3.0,10.0,72,0.00,,SKC,0.00,VWS V14.01,2013-05-03 07:32:00,
2013-05-03 02:33:00,40.8,32.5,30.36,NW,325,2.0,10.0,72,0.00,,SKC,0.00,VWS V14.01,2013-05-03 07:33:00,
2013-05-03 02:34:00,40.7,32.4,30.36,NNW,340,3.0,4.0,72,0.00,,SKC,0.00,VWS V14.01,2013-05-03 07:34:00,
2013-05-03 02:35:00,40.7,32.4,30.36,North,355,11.0,11.0,72,0.00,,SKC,0.00,VWS V14.01,2013-05-03 07:35:00,
2013-05-03 02:36:00,40.7,32.4,30.36,NNE,14,4.0,10.0,72,0.00,,SKC,0.00,VWS V14.01,2013-05-03 07:36:00,
2013-05-03 02:37:00,40.7,32.4,30.36,NNW,341,5.0,7.0,72,0.00,,SKC,0.00,VWS V14.01,2013-05-03 07:37:00,
2013-05-03 02:38:00,40.7,32.4,30.36,NNE,24,3.0,10.0,72,0.00,,SKC,0.00,VWS V14.01,2013-05-03 07:38:00,
2013-05-03 02:39:00,40.7,32.4,30.36,NNW,344,3.0,9.0,72,0.00,,SKC,0.00,VWS V14.01,2013-05-03 07:39:00,
2013-05-03 02:40:00,40.7,32.4,30.36,North,360,5.0,10.0,72,0.00,,SKC,0.00,VWS V14.01,2013-05-03 07:40:00,
2013-05-03 02:41:00,40.7,32.4,30.36,NW,322,4.0,5.0,72,0.00,,SKC,0.00,VWS V14.01,2013-05-03 07:41:00,
2013-05-03 02:42:00,40.6,32.3,30.35,North,349,6.0,6.0,72,0.00,,SKC,0.00,VWS V14.01,2013-05-03 07:42:00,
2013-05-03 02:43:00,40.6,32.3,30.35,NNW,332,4.0,10.0,72,0.00,,SKC,0.00,VWS V14.01,2013-05-03 07:43:00,
2013-05-03 02:44:00,40.6,32.3,30.35,WNW,286,9.0,12.0,72,0.00,,SKC,0.00,VWS V14.01,2013-05-03 07:44:00,
2013-05-03 02:45:00,40.6,32.3,30.35,NNW,345,2.0,9.0,72,0.00,,SKC,0.00,VWS V14.01,2013-05-03 07:45:00,
2013-05-03 02:46:00,40.6,32.3,30.35,NNW,344,1.0,2.0,72,0.00,,SKC,0.00,VWS V14.01,2013-05-03 07:46:00,
2013-05-03 02:47:00,40.6,32.3,30.36,North,355,3.0,6.0,72,0.00,,SKC,0.00,VWS V14.01,2013-05-03 07:47:00,
2013-05-03 02:48:00,40.5,32.2,30.35,NW,324,6.0,6.0,72,0.00,,SKC,0.00,VWS V14.01,2013-05-03 07:48:00,
2013-05-03 02:49:00,40.5,32.2,30.35,NNW,346,3.0,7.0,72,0.00,,SKC,0.00,VWS V14.01,2013-05-03 07:49:00,
2013-05-03 02:50:00,40.5,32.2,30.35,NNW,345,2.0,6.0,72,0.00,,SKC,0.00,VWS V14.01,2013-05-03 07:50:00,
2013-05-03 02:51:00,40.5,32.2,30.35,NNW,346,3.0,3.0,72,0.00,,SKC,0.00,VWS V14.01,2013-05-03 07:51:00,
2013-05-03 02:52:00,40.4,32.1,30.35,North,355,4.0,7.0,72,0.00,,SKC,0.00,VWS V14.01,2013-05-03 07:52:00,
2013-05-03 02:53:00,40.4,32.1,30.35,NNW,347,4.0,6.0,72,0.00,,SKC,0.00,VWS V14.01,2013-05-03 07:53:00,
2013-05-03 02:54:00,40.4,32.4,30.35,NNW,341,5.0,5.0,73,0.00,,SKC,0.00,VWS V14.01,2013-05-03 07:54:00,
2013-05-03 02:55:00,40.3,32.3,30.35,NNW,346,4.0,5.0,73,0.00,,SKC,0.00,VWS V14.01,2013-05-03 07:55:00,
2013-05-03 02:56:00,40.3,32.3,30.35,North,355,6.0,6.0,73,0.00,,SKC,0.00,VWS V14.01,2013-05-03 07:56:00,
2013-05-03 02:57:00,40.2,32.2,30.35,NNW,327,5.0,11.0,73,0.00,,SKC,0.00,VWS V14.01,2013-05-03 07:57:00,
2013-05-03 02:58:00,40.2,32.2,30.35,NNW,345,4.0,14.0,73,0.00,,SKC,0.00,VWS V14.01,2013-05-03 07:58:00,
2013-05-03 02:59:00,40.2,32.2,30.35,North,355,3.0,14.0,73,0.00,,SKC,0.00,VWS V14.01,2013-05-03 07:59:00,
2013-05-03 03:00:00,40.2,32.2,30.35,North,360,6.0,11.0,73,0.00,,SKC,0.00,VWS V14.01,2013-05-03 08:00:00,
2013-05-03 03:01:00,40.2,32.2,30.35,NW,323,10.0,10.0,73,0.00,,SKC,0.00,VWS V14.01,2013-05-03 08:01:00,
2013-05-03 03:02:00,40.2,32.2,30.35,NNW,339,6.0,8.0,73,0.00,,SKC,0.00,VWS V14.01,2013-05-03 08:02:00,
2013-05-03 03:03:00,40.2,32.2,30.35,North,355,2.0,11.0,73,0.00,,SKC,0.00,VWS V14.01,2013-05-03 08:03:00,
2013-05-03 03:04:00,40.2,32.2,30.35,NNW,346,2.0,7.0,73,0.00,,SKC,0.00,VWS V14.01,2013-05-03 08:04:00,
2013-05-03 03:05:00,40.2,32.2,30.35,NNW,346,5.0,7.0,73,0.00,,SKC,0.00,VWS V14.01,2013-05-03 08:05:00,
2013-05-03 03:06:00,40.2,31.9,30.35,NNW,346,6.0,10.0,72,0.00,,SKC,0.00,VWS V14.01,2013-05-03 08:06:00,
2013-05-03 03:07:00,40.2,31.9,30.35,North,355,6.0,10.0,72,0.00,,SKC,0.00,VWS V14.01,2013-05-03 08:07:00,
2013-05-03 03:08:00,40.2,31.9,30.35,NNW,347,6.0,8.0,72,0.00,,SKC,0.00,VWS V14.01,2013-05-03 08:08:00,
2013-05-03 03:09:00,40.2,31.9,30.34,North,360,5.0,12.0,72,0.00,,SKC,0.00,VWS V14.01,2013-05-03 08:09:00,
2013-05-03 03:10:00,40.1,32.2,30.34,North,5,10.0,10.0,73,0.00,,SKC,0.00,VWS V14.01,2013-05-03 08:10:00,
2013-05-03 03:11:00,40.2,31.9,30.34,North,350,6.0,13.0,72,0.00,,SKC,0.00,VWS V14.01,2013-05-03 08:11:00,
2013-05-03 03:12:00,40.1,31.8,30.34,NNW,334,8.0,12.0,72,0.00,,SKC,0.00,VWS V14.01,2013-05-03 08:12:00,
2013-05-03 03:13:00,40.2,31.9,30.34,North,355,9.0,11.0,72,0.00,,SKC,0.00,VWS V14.01,2013-05-03 08:13:00,
2013-05-03 03:14:00,40.2,31.9,30.35,NNW,343,3.0,10.0,72,0.00,,SKC,0.00,VWS V14.01,2013-05-03 08:14:00,
2013-05-03 03:15:00,40.2,31.9,30.35,WNW,286,2.0,6.0,72,0.00,,SKC,0.00,VWS V14.01,2013-05-03 08:15:00,
2013-05-03 03:16:00,40.2,31.9,30.35,NW,309,4.0,4.0,72,0.00,,SKC,0.00,VWS V14.01,2013-05-03 08:16:00,
2013-05-03 03:17:00,40.2,31.9,30.34,NNW,342,4.0,13.0,72,0.00,,SKC,0.00,VWS V14.01,2013-05-03 08:17:00,
2013-05-03 03:18:00,40.2,31.9,30.35,NNW,344,6.0,11.0,72,0.00,,SKC,0.00,VWS V14.01,2013-05-03 08:18:00,
2013-05-03 03:19:00,40.2,31.9,30.35,NNW,340,2.0,11.0,72,0.00,,SKC,0.00,VWS V14.01,2013-05-03 08:19:00,
2013-05-03 03:20:00,40.2,31.9,30.35,North,355,4.0,10.0,72,0.00,,SKC,0.00,VWS V14.01,2013-05-03 08:20:00,
2013-05-03 03:21:00,40.2,31.9,30.35,NNW,347,4.0,8.0,72,0.00,,SKC,0.00,VWS V14.01,2013-05-03 08:21:00,
2013-05-03 03:22:00,40.2,31.9,30.35,WNW,302,3.0,5.0,72,0.00,,SKC,0.00,VWS V14.01,2013-05-03 08:22:00,
2013-05-03 03:23:00,40.1,31.8,30.35,NNW,339,3.0,6.0,72,0.00,,SKC,0.00,VWS V14.01,2013-05-03 08:23:00,
2013-05-03 03:24:00,40.1,31.8,30.35,North,355,9.0,11.0,72,0.00,,SKC,0.00,VWS V14.01,2013-05-03 08:24:00,
2013-05-03 03:25:00,40.1,31.8,30.35,NW,309,5.0,11.0,72,0.00,,SKC,0.00,VWS V14.01,2013-05-03 08:25:00,
2013-05-03 03:26:00,40.1,31.5,30.35,NW,317,5.0,9.0,71,0.00,,SKC,0.00,VWS V14.01,2013-05-03 08:26:00,
2013-05-03 03:27:00,40.1,31.8,30.35,NNW,346,8.0,8.0,72,0.00,,SKC,0.00,VWS V14.01,2013-05-03 08:27:00,
2013-05-03 03:28:00,40.1,31.5,30.35,NNE,14,4.0,5.0,71,0.00,,SKC,0.00,VWS V14.01,2013-05-03 08:28:00,
2013-05-03 03:29:00,40.1,31.5,30.35,North,355,4.0,9.0,71,0.00,,SKC,0.00,VWS V14.01,2013-05-03 08:29:00,
2013-05-03 03:30:00,40.1,31.5,30.35,NW,326,2.0,5.0,71,0.00,,SKC,0.00,VWS V14.01,2013-05-03 08:30:00,
2013-05-03 03:31:00,40.0,31.4,30.35,NW,321,2.0,6.0,71,0.00,,SKC,0.00,VWS V14.01,2013-05-03 08:31:00,
2013-05-03 03:32:00,40.1,31.5,30.35,NW,326,2.0,2.0,71,0.00,,SKC,0.00,VWS V14.01,2013-05-03 08:32:00,
2013-05-03 03:33:00,40.0,31.4,30.35,NNE,21,5.0,5.0,71,0.00,,SKC,0.00,VWS V14.01,2013-05-03 08:33:00,
2013-05-03 03:34:00,39.9,31.6,30.35,North,5,2.0,6.0,72,0.00,,SKC,0.00,VWS V14.01,2013-05-03 08:34:00,
2013-05-03 03:35:00,39.9,31.6,30.35,NNW,328,2.0,4.0,72,0.00,,SKC,0.00,VWS V14.01,2013-05-03 08:35:00,
2013-05-03 03:36:00,39.8,31.5,30.35,NNE,13,5.0,10.0,72,0.00,,SKC,0.00,VWS V14.01,2013-05-03 08:36:00,
2013-05-03 03:37:00,39.9,31.6,30.35,North,355,9.0,9.0,72,0.00,,SKC,0.00,VWS V14.01,2013-05-03 08:37:00,
2013-05-03 03:38:00,39.8,31.2,30.35,NNW,329,1.0,7.0,71,0.00,,SKC,0.00,VWS V14.01,2013-05-03 08:38:00,
2013-05-03 03:39:00,39.8,31.2,30.35,NNW,344,4.0,7.0,71,0.00,,SKC,0.00,VWS V14.01,2013-05-03 08:39:00,
2013-05-03 03:40:00,39.8,31.2,30.35,NNW,343,5.0,7.0,71,0.00,,SKC,0.00,VWS V14.01,2013-05-03 08:40:00,
2013-05-03 03:41:00,39.8,31.2,30.35,NNW,338,4.0,11.0,71,0.00,,SKC,0.00,VWS V14.01,2013-05-03 08:41:00,
2013-05-03 03:42:00,39.8,31.2,30.35,NNW,340,4.0,11.0,71,0.00,,SKC,0.00,VWS V14.01,2013-05-03 08:42:00,
2013-05-03 03:43:00,39.8,31.2,30.35,North,360,5.0,5.0,71,0.00,,SKC,0.00,VWS V14.01,2013-05-03 08:43:00,
2013-05-03 03:44:00,39.8,31.2,30.35,North,349,1.0,5.0,71,0.00,,SKC,0.00,VWS V14.01,2013-05-03 08:44:00,
2013-05-03 03:45:00,39.8,31.2,30.35,NNW,346,6.0,6.0,71,0.00,,SKC,0.00,VWS V14.01,2013-05-03 08:45:00,
2013-05-03 03:46:00,39.8,31.2,30.35,NNW,338,4.0,7.0,71,0.00,,SKC,0.00,VWS V14.01,2013-05-03 08:46:00,
2013-05-03 03:47:00,39.8,31.2,30.35,NNW,338,5.0,6.0,71,0.00,,SKC,0.00,VWS V14.01,2013-05-03 08:47:00,
2013-05-03 03:48:00,39.8,31.2,30.35,NNW,348,4.0,5.0,71,0.00,,SKC,0.00,VWS V14.01,2013-05-03 08:48:00,
2013-05-03 03:49:00,39.7,31.1,30.34,NNW,338,12.0,12.0,71,0.00,,SKC,0.00,VWS V14.01,2013-05-03 08:49:00,
2013-05-03 03:50:00,39.8,30.8,30.34,North,351,1.0,12.0,70,0.00,,SKC,0.00,VWS V14.01,2013-05-03 08:50:00,
2013-05-03 03:51:00,39.8,30.8,30.34,NNW,335,7.0,12.0,70,0.00,,SKC,0.00,VWS V14.01,2013-05-03 08:51:00,
2013-05-03 03:52:00,39.8,30.8,30.34,NNW,334,6.0,11.0,70,0.00,,SKC,0.00,VWS V14.01,2013-05-03 08:52:00,
2013-05-03 03:53:00,39.8,30.8,30.34,North,360,11.0,11.0,70,0.00,,SKC,0.00,VWS V14.01,2013-05-03 08:53:00,
2013-05-03 03:54:00,39.9,30.9,30.35,NNW,331,6.0,11.0,70,0.00,,SKC,0.00,VWS V14.01,2013-05-03 08:54:00,
2013-05-03 03:55:00,39.9,30.9,30.35,NNW,334,3.0,8.0,70,0.00,,SKC,0.00,VWS V14.01,2013-05-03 08:55:00,
2013-05-03 03:56:00,39.9,30.9,30.35,NNW,343,7.0,10.0,70,0.00,,SKC,0.00,VWS V14.01,2013-05-03 08:56:00,
2013-05-03 03:57:00,39.9,30.9,30.35,NNW,334,4.0,10.0,70,0.00,,SKC,0.00,VWS V14.01,2013-05-03 08:57:00,
2013-05-03 03:58:00,39.9,30.9,30.35,NNW,333,2.0,11.0,70,0.00,,SKC,0.00,VWS V14.01,2013-05-03 08:58:00,
2013-05-03 03:59:00,39.9,30.6,30.35,NNW,327,4.0,8.0,69,0.00,,SKC,0.00,VWS V14.01,2013-05-03 08:59:00,
2013-05-03 04:00:00,39.9,30.6,30.35,NNW,334,4.0,13.0,69,0.00,,SKC,0.00,VWS V14.01,2013-05-03 09:00:00,
2013-05-03 04:01:00,40.0,30.7,30.35,North,349,4.0,8.0,69,0.00,,SKC,0.00,VWS V14.01,2013-05-03 09:01:00,
2013-05-03 04:02:00,40.0,30.7,30.35,NNW,342,2.0,6.0,69,0.00,,SKC,0.00,VWS V14.01,2013-05-03 09:02:00,
2013-05-03 04:03:00,39.9,30.6,30.35,NNW,338,5.0,10.0,69,0.00,,SKC,0.00,VWS V14.01,2013-05-03 09:03:00,
2013-05-03 04:04:00,40.0,30.7,30.35,NNW,334,9.0,9.0,69,0.00,,SKC,0.00,VWS V14.01,2013-05-03 09:04:00,
2013-05-03 04:05:00,39.9,30.6,30.35,NNW,345,5.0,11.0,69,0.00,,SKC,0.00,VWS V14.01,2013-05-03 09:05:00,
2013-05-03 04:06:00,39.9,30.6,30.35,NNW,331,5.0,11.0,69,0.00,,SKC,0.00,VWS V14.01,2013-05-03 09:06:00,
2013-05-03 04:07:00,39.9,30.6,30.35,NNW,340,6.0,6.0,69,0.00,,SKC,0.00,VWS V14.01,2013-05-03 09:07:00,
2013-05-03 04:08:00,39.9,30.6,30.35,NNW,336,2.0,5.0,69,0.00,,SKC,0.00,VWS V14.01,2013-05-03 09:08:00,
2013-05-03 04:09:00,39.9,30.6,30.35,NNW,344,4.0,10.0,69,0.00,,SKC,0.00,VWS V14.01,2013-05-03 09:09:00,
2013-05-03 04:10:00,39.8,30.5,30.35,NW,319,7.0,13.0,69,0.00,,SKC,0.00,VWS V14.01,2013-05-03 09:10:00,
2013-05-03 04:11:00,39.8,30.5,30.35,NNW,343,2.0,9.0,69,0.00,,SKC,0.00,VWS V14.01,2013-05-03 09:11:00,
2013-05-03 04:12:00,39.8,30.5,30.35,NNW,338,7.0,9.0,69,0.00,,SKC,0.00,VWS V14.01,2013-05-03 09:12:00,
2013-05-03 04:13:00,39.8,30.5,30.35,North,9,5.0,7.0,69,0.00,,SKC,0.00,VWS V14.01,2013-05-03 09:13:00,
2013-05-03 04:14:00,39.8,30.5,30.35,NNE,25,5.0,7.0,69,0.00,,SKC,0.00,VWS V14.01,2013-05-03 09:14:00,
2013-05-03 04:15:00,39.8,30.5,30.35,NNE,17,6.0,10.0,69,0.00,,SKC,0.00,VWS V14.01,2013-05-03 09:15:00,
2013-05-03 04:16:00,39.7,30.4,30.35,NNW,327,1.0,6.0,69,0.00,,SKC,0.00,VWS V14.01,2013-05-03 09:16:00,
2013-05-03 04:17:00,39.7,30.4,30.35,NW,316,2.0,6.0,69,0.00,,SKC,0.00,VWS V14.01,2013-05-03 09:17:00,
2013-05-03 04:18:00,39.7,30.4,30.35,North,5,6.0,12.0,69,0.00,,SKC,0.00,VWS V14.01,2013-05-03 09:18:00,
2013-05-03 04:19:00,39.7,30.4,30.35,North,5,7.0,7.0,69,0.00,,SKC,0.00,VWS V14.01,2013-05-03 09:19:00,
2013-05-03 04:20:00,39.7,30.4,30.35,North,355,9.0,10.0,69,0.00,,SKC,0.00,VWS V14.01,2013-05-03 09:20:00,
2013-05-03 04:21:00,39.7,30.4,30.35,NNW,331,1.0,9.0,69,0.00,,SKC,0.00,VWS V14.01,2013-05-03 09:21:00,
2013-05-03 04:22:00,39.7,30.4,30.35,NNW,330,2.0,9.0,69,0.00,,SKC,0.00,VWS V14.01,2013-05-03 09:22:00,
2013-05-03 04:23:00,39.7,30.4,30.35,North,355,4.0,9.0,69,0.00,,SKC,0.00,VWS V14.01,2013-05-03 09:23:00,
2013-05-03 04:24:00,39.7,30.4,30.35,North,355,2.0,4.0,69,0.00,,SKC,0.00,VWS V14.01,2013-05-03 09:24:00,
2013-05-03 04:25:00,39.7,30.4,30.35,NNW,343,8.0,9.0,69,0.00,,SKC,0.00,VWS V14.01,2013-05-03 09:25:00,
2013-05-03 04:26:00,39.7,30.4,30.35,NW,319,2.0,10.0,69,0.00,,SKC,0.00,VWS V14.01,2013-05-03 09:26:00,
2013-05-03 04:27:00,39.7,30.4,30.35,North,360,6.0,10.0,69,0.00,,SKC,0.00,VWS V14.01,2013-05-03 09:27:00,
2013-05-03 04:28:00,39.6,30.3,30.35,NNE,29,7.0,9.0,69,0.00,,SKC,0.00,VWS V14.01,2013-05-03 09:28:00,
2013-05-03 04:29:00,39.6,30.3,30.35,NW,313,3.0,10.0,69,0.00,,SKC,0.00,VWS V14.01,2013-05-03 09:29:00,
2013-05-03 04:30:00,39.6,30.3,30.35,NNW,341,1.0,8.0,69,0.00,,SKC,0.00,VWS V14.01,2013-05-03 09:30:00,
2013-05-03 04:31:00,39.6,30.3,30.34,North,360,11.0,14.0,69,0.00,,SKC,0.00,VWS V14.01,2013-05-03 09:31:00,
2013-05-03 04:32:00,39.6,30.3,30.34,NNW,331,4.0,14.0,69,0.00,,SKC,0.00,VWS V14.01,2013-05-03 09:32:00,
2013-05-03 04:33:00,39.7,30.0,30.35,NW,304,6.0,9.0,68,0.00,,SKC,0.00,VWS V14.01,2013-05-03 09:33:00,
2013-05-03 04:34:00,39.7,30.0,30.35,North,360,8.0,9.0,68,0.00,,SKC,0.00,VWS V14.01,2013-05-03 09:34:00,
2013-05-03 04:35:00,39.6,29.9,30.35,NNW,342,5.0,8.0,68,0.00,,SKC,0.00,VWS V14.01,2013-05-03 09:35:00,
2013-05-03 04:36:00,39.6,29.9,30.35,North,355,10.0,11.0,68,0.00,,SKC,0.00,VWS V14.01,2013-05-03 09:36:00,
2013-05-03 04:37:00,39.6,29.9,30.35,NNW,338,6.0,6.0,68,0.00,,SKC,0.00,VWS V14.01,2013-05-03 09:37:00,
2013-05-03 04:38:00,39.6,29.9,30.34,NNW,346,4.0,14.0,68,0.00,,SKC,0.00,VWS V14.01,2013-05-03 09:38:00,
2013-05-03 04:39:00,39.6,29.9,30.34,NNW,328,6.0,9.0,68,0.00,,SKC,0.00,VWS V14.01,2013-05-03 09:39:00,
2013-05-03 04:40:00,39.6,29.9,30.34,NW,319,5.0,12.0,68,0.00,,SKC,0.00,VWS V14.01,2013-05-03 09:40:00,
2013-05-03 04:41:00,39.6,29.9,30.34,NW,323,4.0,10.0,68,0.00,,SKC,0.00,VWS V14.01,2013-05-03 09:41:00,
2013-05-03 04:42:00,39.6,29.9,30.34,NNW,340,6.0,10.0,68,0.00,,SKC,0.00,VWS V14.01,2013-05-03 09:42:00,
2013-05-03 04:43:00,39.6,29.9,30.34,NNW,335,3.0,9.0,68,0.00,,SKC,0.00,VWS V14.01,2013-05-03 09:43:00,
2013-05-03 04:44:00,39.6,29.9,30.34,WNW,290,5.0,10.0,68,0.00,,SKC,0.00,VWS V14.01,2013-05-03 09:44:00,
2013-05-03 04:45:00,39.6,29.9,30.34,WNW,302,4.0,7.0,68,0.00,,SKC,0.00,VWS V14.01,2013-05-03 09:45:00,
2013-05-03 04:46:00,39.6,29.9,30.34,North,355,5.0,15.0,68,0.00,,SKC,0.00,VWS V14.01,2013-05-03 09:46:00,
2013-05-03 04:47:00,39.6,29.9,30.34,North,10,9.0,15.0,68,0.00,,SKC,0.00,VWS V14.01,2013-05-03 09:47:00,
2013-05-03 04:48:00,39.6,31.3,30.34,North,355,10.0,16.0,72,0.00,,SKC,0.00,VWS V14.01,2013-05-03 09:48:00,
2013-05-03 04:49:00,39.6,29.9,30.34,North,5,5.0,12.0,68,0.00,,SKC,0.00,VWS V14.01,2013-05-03 09:49:00,
2013-05-03 04:50:00,39.6,29.9,30.34,NW,323,7.0,15.0,68,0.00,,SKC,0.00,VWS V14.01,2013-05-03 09:50:00,
2013-05-03 04:51:00,39.6,29.9,30.34,NNE,16,16.0,16.0,68,0.00,,SKC,0.00,VWS V14.01,2013-05-03 09:51:00,
2013-05-03 04:52:00,39.6,29.9,30.34,NNW,336,4.0,11.0,68,0.00,,SKC,0.00,VWS V14.01,2013-05-03 09:52:00,
2013-05-03 04:53:00,39.7,30.0,30.34,NW,326,4.0,11.0,68,0.00,,SKC,0.00,VWS V14.01,2013-05-03 09:53:00,
2013-05-03 04:54:00,39.7,30.0,30.34,NNW,341,7.0,14.0,68,0.00,,SKC,0.00,VWS V14.01,2013-05-03 09:54:00,
2013-05-03 04:55:00,39.7,29.7,30.34,NW,321,6.0,11.0,67,0.00,,SKC,0.00,VWS V14.01,2013-05-03 09:55:00,
2013-05-03 04:56:00,39.7,29.7,30.34,North,5,10.0,10.0,67,0.00,,SKC,0.00,VWS V14.01,2013-05-03 09:56:00,
2013-05-03 04:57:00,39.7,29.7,30.34,WNW,286,4.0,6.0,67,0.00,,SKC,0.00,VWS V14.01,2013-05-03 09:57:00,
2013-05-03 04:58:00,39.7,29.7,30.34,NNW,345,4.0,19.0,67,0.00,,SKC,0.00,VWS V14.01,2013-05-03 09:58:00,
2013-05-03 04:59:00,39.7,29.7,30.34,NNW,340,10.0,13.0,67,0.00,,SKC,0.00,VWS V14.01,2013-05-03 09:59:00,
2013-05-03 05:00:00,39.7,29.7,30.34,North,5,9.0,10.0,67,0.00,,SKC,0.00,VWS V14.01,2013-05-03 10:00:00,
2013-05-03 05:01:00,39.7,29.7,30.34,NNW,341,3.0,9.0,67,0.00,,SKC,0.00,VWS V14.01,2013-05-03 10:01:00,
2013-05-03 05:02:00,39.7,29.7,30.34,North,355,6.0,9.0,67,0.00,,SKC,0.00,VWS V14.01,2013-05-03 10:02:00,
2013-05-03 05:03:00,39.7,29.7,30.34,North,360,5.0,11.0,67,0.00,,SKC,0.00,VWS V14.01,2013-05-03 10:03:00,
2013-05-03 05:04:00,39.6,29.6,30.34,North,355,11.0,12.0,67,0.00,,SKC,0.00,VWS V14.01,2013-05-03 10:04:00,
2013-05-03 05:05:00,39.6,29.6,30.34,NNW,338,6.0,11.0,67,0.00,,SKC,0.00,VWS V14.01,2013-05-03 10:05:00,
2013-05-03 05:06:00,39.5,29.5,30.34,North,5,5.0,10.0,67,0.00,,SKC,0.00,VWS V14.01,2013-05-03 10:06:00,
2013-05-03 05:07:00,39.6,29.6,30.34,North,360,6.0,10.0,67,0.00,,SKC,0.00,VWS V14.01,2013-05-03 10:07:00,
2013-05-03 05:08:00,39.5,29.8,30.34,North,360,12.0,14.0,68,0.00,,SKC,0.00,VWS V14.01,2013-05-03 10:08:00,
2013-05-03 05:09:00,39.5,29.8,30.34,NNW,345,3.0,12.0,68,0.00,,SKC,0.00,VWS V14.01,2013-05-03 10:09:00,
2013-05-03 05:10:00,39.5,29.8,30.34,NNW,345,6.0,10.0,68,0.00,,SKC,0.00,VWS V14.01,2013-05-03 10:10:00,
2013-05-03 05:11:00,39.5,29.8,30.34,NNW,329,6.0,11.0,68,0.00,,SKC,0.00,VWS V14.01,2013-05-03 10:11:00,
2013-05-03 05:12:00,39.5,29.8,30.34,NNW,339,5.0,7.0,68,0.00,,SKC,0.00,VWS V14.01,2013-05-03 10:12:00,
2013-05-03 05:13:00,39.5,29.8,30.35,NW,309,3.0,11.0,68,0.00,,SKC,0.00,VWS V14.01,2013-05-03 10:13:00,
2013-05-03 05:14:00,39.4,29.7,30.34,WNW,303,11.0,11.0,68,0.00,,SKC,0.00,VWS V14.01,2013-05-03 10:14:00,
2013-05-03 05:15:00,39.4,29.7,30.34,NNW,333,10.0,13.0,68,0.00,,SKC,0.00,VWS V14.01,2013-05-03 10:15:00,
2013-05-03 05:16:00,39.4,29.4,30.34,NW,322,12.0,12.0,67,0.00,,SKC,0.00,VWS V14.01,2013-05-03 10:16:00,
2013-05-03 05:17:00,39.4,29.7,30.34,NNW,329,9.0,12.0,68,0.00,,SKC,0.00,VWS V14.01,2013-05-03 10:17:00,
2013-05-03 05:18:00,39.4,29.4,30.34,NNW,336,8.0,10.0,67,0.00,,SKC,0.00,VWS V14.01,2013-05-03 10:18:00,
2013-05-03 05:19:00,39.4,29.4,30.34,NNW,329,7.0,13.0,67,0.00,,SKC,0.00,VWS V14.01,2013-05-03 10:19:00,
2013-05-03 05:20:00,39.4,29.4,30.34,North,360,7.0,11.0,67,0.00,,SKC,0.00,VWS V14.01,2013-05-03 10:20:00,
2013-05-03 05:21:00,39.4,29.4,30.34,NNW,337,5.0,13.0,67,0.00,,SKC,0.00,VWS V14.01,2013-05-03 10:21:00,
2013-05-03 05:22:00,39.4,29.4,30.34,NNE,32,11.0,13.0,67,0.00,,SKC,0.00,VWS V14.01,2013-05-03 10:22:00,
2013-05-03 05:23:00,39.4,29.4,30.34,NW,321,3.0,10.0,67,0.00,,SKC,0.00,VWS V14.01,2013-05-03 10:23:00,
2013-05-03 05:24:00,39.5,29.5,30.34,North,355,9.0,9.0,67,0.00,,SKC,0.00,VWS V14.01,2013-05-03 10:24:00,
2013-05-03 05:25:00,39.4,29.4,30.35,NW,326,3.0,9.0,67,0.00,,SKC,0.00,VWS V14.01,2013-05-03 10:25:00,
2013-05-03 05:26:00,39.4,29.4,30.35,NW,317,5.0,12.0,67,0.00,,SKC,0.00,VWS V14.01,2013-05-03 10:26:00,
2013-05-03 05:27:00,39.4,29.4,30.35,NNW,348,10.0,10.0,67,0.00,,SKC,0.00,VWS V14.01,2013-05-03 10:27:00,
2013-05-03 05:28:00,39.4,29.4,30.34,NNW,344,6.0,15.0,67,0.00,,SKC,0.00,VWS V14.01,2013-05-03 10:28:00,
2013-05-03 05:29:00,39.4,29.4,30.34,NNW,336,6.0,7.0,67,0.00,,SKC,0.00,VWS V14.01,2013-05-03 10:29:00,
2013-05-03 05:30:00,39.3,29.3,30.34,NNW,329,11.0,11.0,67,0.00,,SKC,0.00,VWS V14.01,2013-05-03 10:30:00,
2013-05-03 05:31:00,39.3,29.3,30.35,North,355,6.0,13.0,67,0.00,,SKC,0.00,VWS V14.01,2013-05-03 10:31:00,
2013-05-03 05:32:00,39.3,29.3,30.35,NNW,346,4.0,13.0,67,0.00,,SKC,0.00,VWS V14.01,2013-05-03 10:32:00,
2013-05-03 05:33:00,39.4,29.4,30.34,North,351,5.0,11.0,67,0.00,,SKC,0.00,VWS V14.01,2013-05-03 10:33:00,
2013-05-03 05:34:00,39.4,29.4,30.35,North,349,3.0,9.0,67,0.00,,SKC,0.00,VWS V14.01,2013-05-03 10:34:00,
2013-05-03 05:35:00,39.4,29.4,30.35,WNW,286,4.0,5.0,67,0.00,,SKC,0.00,VWS V14.01,2013-05-03 10:35:00,
2013-05-03 05:36:00,39.3,29.3,30.35,NNW,339,4.0,13.0,67,0.00,,SKC,0.00,VWS V14.01,2013-05-03 10:36:00,
2013-05-03 05:37:00,39.4,29.4,30.35,North,355,5.0,10.0,67,0.00,,SKC,0.00,VWS V14.01,2013-05-03 10:37:00,
2013-05-03 05:38:00,39.3,29.3,30.35,WNW,283,10.0,14.0,67,0.00,,SKC,0.00,VWS V14.01,2013-05-03 10:38:00,
2013-05-03 05:39:00,39.3,29.3,30.35,NNW,348,6.0,10.0,67,0.00,,SKC,0.00,VWS V14.01,2013-05-03 10:39:00,
2013-05-03 05:40:00,39.3,29.3,30.35,North,11,5.0,12.0,67,0.00,,SKC,0.00,VWS V14.01,2013-05-03 10:40:00,
2013-05-03 05:41:00,39.3,28.9,30.35,NNE,28,7.0,11.0,66,0.00,,SKC,0.00,VWS V14.01,2013-05-03 10:41:00,
2013-05-03 05:42:00,39.3,28.9,30.35,NNW,332,3.0,11.0,66,0.00,,SKC,0.00,VWS V14.01,2013-05-03 10:42:00,
2013-05-03 05:43:00,39.3,29.3,30.35,North,355,7.0,10.0,67,0.00,,SKC,0.00,VWS V14.01,2013-05-03 10:43:00,
2013-05-03 05:44:00,39.3,29.3,30.35,NNW,334,6.0,10.0,67,0.00,,SKC,0.00,VWS V14.01,2013-05-03 10:44:00,
2013-05-03 05:45:00,39.3,29.3,30.35,NNW,343,7.0,7.0,67,0.00,,SKC,0.00,VWS V14.01,2013-05-03 10:45:00,
2013-05-03 05:46:00,39.2,29.2,30.35,WNW,288,4.0,10.0,67,0.00,,SKC,0.00,VWS V14.01,2013-05-03 10:46:00,
2013-05-03 05:47:00,39.2,29.2,30.35,NNW,336,5.0,10.0,67,0.00,,SKC,0.00,VWS V14.01,2013-05-03 10:47:00,
2013-05-03 05:48:00,39.2,29.2,30.35,North,355,5.0,11.0,67,0.00,,SKC,0.00,VWS V14.01,2013-05-03 10:48:00,
2013-05-03 05:49:00,39.2,29.2,30.35,WNW,294,11.0,11.0,67,0.00,,SKC,0.00,VWS V14.01,2013-05-03 10:49:00,
2013-05-03 05:50:00,39.1,29.1,30.35,NNW,327,6.0,11.0,67,0.00,,SKC,0.00,VWS V14.01,2013-05-03 10:50:00,
2013-05-03 05:51:00,39.1,29.1,30.35,NNW,338,3.0,9.0,67,0.00,,SKC,0.00,VWS V14.01,2013-05-03 10:51:00,
2013-05-03 05:52:00,39.1,29.1,30.35,NNW,342,4.0,9.0,67,0.00,,SKC,0.00,VWS V14.01,2013-05-03 10:52:00,
2013-05-03 05:53:00,39.1,29.1,30.35,NW,324,2.0,5.0,67,0.00,,SKC,0.00,VWS V14.01,2013-05-03 10:53:00,
2013-05-03 05:54:00,39.0,29.0,30.35,North,349,5.0,16.0,67,0.00,,SKC,0.00,VWS V14.01,2013-05-03 10:54:00,
2013-05-03 05:55:00,39.0,29.0,30.35,NNW,344,5.0,11.0,67,0.00,,SKC,0.00,VWS V14.01,2013-05-03 10:55:00,
2013-05-03 05:56:00,39.0,29.0,30.35,NNW,346,5.0,9.0,67,0.00,,SKC,0.00,VWS V14.01,2013-05-03 10:56:00,
2013-05-03 05:57:00,39.0,29.0,30.35,NW,325,9.0,9.0,67,0.00,,SKC,0.00,VWS V14.01,2013-05-03 10:57:00,
2013-05-03 05:58:00,38.9,28.9,30.35,North,360,2.0,10.0,67,0.00,,SKC,0.00,VWS V14.01,2013-05-03 10:58:00,
2013-05-03 05:59:00,38.9,28.9,30.35,North,350,6.0,6.0,67,0.00,,SKC,0.00,VWS V14.01,2013-05-03 10:59:00,
2013-05-03 06:00:00,38.9,28.9,30.35,NNW,334,4.0,9.0,67,0.00,,SKC,0.00,VWS V14.01,2013-05-03 11:00:00,
2013-05-03 06:01:00,38.8,28.8,30.35,North,360,4.0,5.0,67,0.00,,SKC,0.00,VWS V14.01,2013-05-03 11:01:00,
2013-05-03 06:02:00,38.8,28.8,30.35,NNW,334,4.0,5.0,67,0.00,,SKC,0.00,VWS V14.01,2013-05-03 11:02:00,
2013-05-03 06:03:00,38.8,29.2,30.35,NNW,331,12.0,13.0,68,0.00,,SKC,0.00,VWS V14.01,2013-05-03 11:03:00,
2013-05-03 06:04:00,38.8,29.2,30.35,North,351,11.0,14.0,68,0.00,,SKC,0.00,VWS V14.01,2013-05-03 11:04:00,
2013-05-03 06:05:00,38.8,29.2,30.35,North,355,4.0,11.0,68,0.00,,SKC,0.00,VWS V14.01,2013-05-03 11:05:00,
2013-05-03 06:06:00,38.8,29.2,30.35,NNW,348,11.0,11.0,68,0.00,,SKC,0.00,VWS V14.01,2013-05-03 11:06:00,
2013-05-03 06:07:00,38.8,29.2,30.35,NNW,327,4.0,11.0,68,0.00,,SKC,0.00,VWS V14.01,2013-05-03 11:07:00,
2013-05-03 06:08:00,38.8,29.2,30.35,North,355,9.0,10.0,68,0.00,,SKC,0.00,VWS V14.01,2013-05-03 11:08:00,
2013-05-03 06:09:00,38.8,29.2,30.34,NNW,346,4.0,14.0,68,0.00,,SKC,0.00,VWS V14.01,2013-05-03 11:09:00,
2013-05-03 06:10:00,38.7,29.1,30.34,NNE,13,8.0,10.0,68,0.00,,SKC,0.00,VWS V14.01,2013-05-03 11:10:00,
2013-05-03 06:11:00,38.7,29.1,30.35,NNW,337,4.0,13.0,68,0.00,,SKC,0.00,VWS V14.01,2013-05-03 11:11:00,
2013-05-03 06:12:00,38.7,29.1,30.35,NNW,329,7.0,13.0,68,0.00,,SKC,0.00,VWS V14.01,2013-05-03 11:12:00,
2013-05-03 06:13:00,38.7,29.1,30.34,NW,324,3.0,11.0,68,0.00,,SKC,0.00,VWS V14.01,2013-05-03 11:13:00,
2013-05-03 06:14:00,38.7,29.1,30.34,NNW,342,4.0,11.0,68,0.00,,SKC,0.00,VWS V14.01,2013-05-03 11:14:00,
2013-05-03 06:15:00,38.7,29.1,30.34,NNW,342,5.0,12.0,68,0.00,,SKC,0.00,VWS V14.01,2013-05-03 11:15:00,
2013-05-03 06:16:00,38.6,29.0,30.35,North,9,6.0,12.0,68,0.00,,SKC,0.00,VWS V14.01,2013-05-03 11:16:00,
2013-05-03 06:17:00,38.7,29.1,30.35,NNW,331,7.0,12.0,68,0.00,,SKC,0.00,VWS V14.01,2013-05-03 11:17:00,
2013-05-03 06:18:00,38.6,29.3,30.35,North,355,3.0,5.0,69,0.00,,SKC,0.00,VWS V14.01,2013-05-03 11:18:00,
2013-05-03 06:19:00,38.5,29.2,30.34,North,5,7.0,7.0,69,0.00,,SKC,0.00,VWS V14.01,2013-05-03 11:19:00,
2013-05-03 06:20:00,38.5,29.2,30.35,North,355,5.0,11.0,69,0.00,,SKC,0.00,VWS V14.01,2013-05-03 11:20:00,
2013-05-03 06:21:00,38.5,29.2,30.35,North,355,5.0,11.0,69,0.00,,SKC,0.00,VWS V14.01,2013-05-03 11:21:00,
2013-05-03 06:22:00,38.5,29.2,30.35,North,355,4.0,11.0,69,0.00,,SKC,0.00,VWS V14.01,2013-05-03 11:22:00,
2013-05-03 06:23:00,38.4,29.1,30.35,North,355,6.0,14.0,69,0.00,,SKC,0.00,VWS V14.01,2013-05-03 11:23:00,
2013-05-03 06:24:00,38.3,29.0,30.35,North,360,6.0,13.0,69,0.00,,SKC,0.00,VWS V14.01,2013-05-03 11:24:00,
2013-05-03 06:25:00,38.3,29.0,30.35,NNW,336,6.0,9.0,69,0.00,,SKC,0.00,VWS V14.01,2013-05-03 11:25:00,
2013-05-03 06:26:00,38.3,29.0,30.35,NNW,342,5.0,6.0,69,0.00,,SKC,0.00,VWS V14.01,2013-05-03 11:26:00,
2013-05-03 06:27:00,38.3,29.0,30.35,NNW,332,4.0,6.0,69,0.00,,SKC,0.00,VWS V14.01,2013-05-03 11:27:00,
2013-05-03 06:28:00,38.2,29.3,30.35,North,355,5.0,9.0,70,0.00,,SKC,0.00,VWS V14.01,2013-05-03 11:28:00,
2013-05-03 06:29:00,38.2,29.3,30.35,NNW,333,5.0,10.0,70,0.00,,SKC,0.00,VWS V14.01,2013-05-03 11:29:00,
2013-05-03 06:30:00,38.1,29.2,30.35,NNW,342,6.0,12.0,70,0.00,,SKC,0.00,VWS V14.01,2013-05-03 11:30:00,
2013-05-03 06:31:00,38.1,29.2,30.35,NNW,342,4.0,10.0,70,0.00,,SKC,0.00,VWS V14.01,2013-05-03 11:31:00,
2013-05-03 06:32:00,38.1,29.2,30.35,NW,316,5.0,10.0,70,0.00,,SKC,0.00,VWS V14.01,2013-05-03 11:32:00,
2013-05-03 06:33:00,38.0,29.1,30.35,NNW,333,11.0,11.0,70,0.00,,SKC,0.00,VWS V14.01,2013-05-03 11:33:00,
2013-05-03 06:34:00,38.0,29.1,30.35,NW,321,3.0,11.0,70,0.00,,SKC,0.00,VWS V14.01,2013-05-03 11:34:00,
2013-05-03 06:35:00,37.9,29.0,30.35,NNW,327,5.0,7.0,70,0.00,,SKC,0.00,VWS V14.01,2013-05-03 11:35:00,
2013-05-03 06:36:00,37.9,29.0,30.35,NNW,336,4.0,5.0,70,0.00,,SKC,0.00,VWS V14.01,2013-05-03 11:36:00,
2013-05-03 06:37:00,37.9,29.0,30.35,North,10,5.0,5.0,70,0.00,,SKC,0.00,VWS V14.01,2013-05-03 11:37:00,
2013-05-03 06:38:00,37.8,29.2,30.35,NNW,333,2.0,6.0,71,0.00,,SKC,0.00,VWS V14.01,2013-05-03 11:38:00,
2013-05-03 06:39:00,37.8,29.2,30.35,NW,312,2.0,10.0,71,0.00,,SKC,0.00,VWS V14.01,2013-05-03 11:39:00,
2013-05-03 06:40:00,37.7,29.2,30.35,North,360,4.0,6.0,71,0.00,,SKC,0.00,VWS V14.01,2013-05-03 11:40:00,
2013-05-03 06:41:00,37.7,29.2,30.35,NNW,333,1.0,6.0,71,0.00,,SKC,0.00,VWS V14.01,2013-05-03 11:41:00,
2013-05-03 06:42:00,37.7,29.2,30.35,NW,323,1.0,6.0,71,0.00,,SKC,0.00,VWS V14.01,2013-05-03 11:42:00,
2013-05-03 06:43:00,37.6,29.1,30.35,North,350,4.0,6.0,71,0.00,,SKC,0.00,VWS V14.01,2013-05-03 11:43:00,
2013-05-03 06:44:00,37.6,29.1,30.35,North,355,5.0,5.0,71,0.00,,SKC,0.00,VWS V14.01,2013-05-03 11:44:00,
2013-05-03 06:45:00,37.5,29.0,30.35,NW,313,0.0,7.0,71,0.00,,SKC,0.00,VWS V14.01,2013-05-03 11:45:00,
2013-05-03 06:46:00,37.5,29.0,30.35,NNW,327,6.0,8.0,71,0.00,,SKC,0.00,VWS V14.01,2013-05-03 11:46:00,
2013-05-03 06:47:00,37.5,29.0,30.35,North,349,7.0,8.0,71,0.00,,SKC,0.00,VWS V14.01,2013-05-03 11:47:00,
2013-05-03 06:48:00,37.4,28.9,30.35,NNW,338,3.0,5.0,71,0.00,,SKC,0.00,VWS V14.01,2013-05-03 11:48:00,
2013-05-03 06:49:00,37.4,29.2,30.36,NW,322,10.0,10.0,72,0.00,,SKC,0.00,VWS V14.01,2013-05-03 11:49:00,
2013-05-03 06:50:00,37.4,29.2,30.36,NNW,329,5.0,9.0,72,0.00,,SKC,0.00,VWS V14.01,2013-05-03 11:50:00,
2013-05-03 06:51:00,37.4,29.2,30.36,NNW,340,2.0,5.0,72,0.00,,SKC,0.00,VWS V14.01,2013-05-03 11:51:00,
2013-05-03 06:52:00,37.4,29.2,30.36,NNW,340,0.0,5.0,72,0.00,,SKC,0.00,VWS V14.01,2013-05-03 11:52:00,
2013-05-03 06:53:00,37.4,29.2,30.36,North,5,6.0,6.0,72,0.00,,SKC,0.00,VWS V14.01,2013-05-03 11:53:00,
2013-05-03 06:54:00,37.4,28.9,30.35,North,355,6.0,6.0,71,0.00,,SKC,0.00,VWS V14.01,2013-05-03 11:54:00,
2013-05-03 06:55:00,37.4,28.9,30.36,North,350,4.0,6.0,71,0.00,,SKC,0.00,VWS V14.01,2013-05-03 11:55:00,
2013-05-03 06:56:00,37.4,28.9,30.36,NW,314,2.0,9.0,71,0.00,,SKC,0.00,VWS V14.01,2013-05-03 11:56:00,
2013-05-03 06:57:00,37.4,28.9,30.36,NNW,344,4.0,9.0,71,0.00,,SKC,0.00,VWS V14.01,2013-05-03 11:57:00,
2013-05-03 06:58:00,37.4,28.9,30.36,NNW,338,3.0,10.0,71,0.00,,SKC,0.00,VWS V14.01,2013-05-03 11:58:00,
2013-05-03 06:59:00,37.5,29.0,30.36,North,355,6.0,7.0,71,0.00,,SKC,0.00,VWS V14.01,2013-05-03 11:59:00,
2013-05-03 07:00:00,37.5,29.0,30.36,North,360,6.0,6.0,71,0.00,,SKC,0.00,VWS V14.01,2013-05-03 12:00:00,
2013-05-03 07:01:00,37.5,29.0,30.36,NNW,327,3.0,10.0,71,0.00,,SKC,0.00,VWS V14.01,2013-05-03 12:01:00,
2013-05-03 07:02:00,37.5,29.0,30.36,NW,319,2.0,10.0,71,0.00,,SKC,0.00,VWS V14.01,2013-05-03 12:02:00,
2013-05-03 07:03:00,37.6,29.1,30.36,NNW,333,3.0,10.0,71,0.00,,SKC,0.00,VWS V14.01,2013-05-03 12:03:00,
2013-05-03 07:04:00,37.6,29.1,30.36,NW,321,2.0,6.0,71,0.00,,SKC,0.00,VWS V14.01,2013-05-03 12:04:00,
2013-05-03 07:05:00,37.6,29.1,30.36,North,350,6.0,8.0,71,0.00,,SKC,0.00,VWS V14.01,2013-05-03 12:05:00,
2013-05-03 07:06:00,37.6,29.1,30.36,NW,311,3.0,6.0,71,0.00,,SKC,0.00,VWS V14.01,2013-05-03 12:06:00,
2013-05-03 07:07:00,37.6,29.1,30.36,North,355,3.0,6.0,71,0.00,,SKC,0.00,VWS V14.01,2013-05-03 12:07:00,
2013-05-03 07:08:00,37.7,29.2,30.36,NNE,17,4.0,5.0,71,0.00,,SKC,0.00,VWS V14.01,2013-05-03 12:08:00,
2013-05-03 07:09:00,37.7,29.2,30.36,North,11,6.0,9.0,71,0.00,,SKC,0.00,VWS V14.01,2013-05-03 12:09:00,
2013-05-03 07:10:00,37.7,29.2,30.36,NW,322,10.0,10.0,71,0.00,,SKC,0.00,VWS V14.01,2013-05-03 12:10:00,
2013-05-03 07:11:00,37.7,29.2,30.36,NNW,329,2.0,10.0,71,0.00,,SKC,0.00,VWS V14.01,2013-05-03 12:11:00,
2013-05-03 07:12:00,37.7,29.2,30.36,NW,311,7.0,10.0,71,0.00,,SKC,0.00,VWS V14.01,2013-05-03 12:12:00,
2013-05-03 07:13:00,37.8,28.9,30.36,NNW,342,8.0,9.0,70,0.00,,SKC,0.00,VWS V14.01,2013-05-03 12:13:00,
2013-05-03 07:14:00,37.9,29.0,30.36,North,360,6.0,11.0,70,0.00,,SKC,0.00,VWS V14.01,2013-05-03 12:14:00,
2013-05-03 07:15:00,37.9,29.0,30.36,NNW,339,2.0,6.0,70,0.00,,SKC,0.00,VWS V14.01,2013-05-03 12:15:00,
2013-05-03 07:16:00,37.9,29.0,30.36,NNW,327,0.0,6.0,70,0.00,,SKC,0.00,VWS V14.01,2013-05-03 12:16:00,
2013-05-03 07:17:00,37.9,29.0,30.36,NNW,327,1.0,6.0,70,0.00,,SKC,0.00,VWS V14.01,2013-05-03 12:17:00,
2013-05-03 07:18:00,38.0,29.1,30.36,WNW,302,4.0,5.0,70,0.00,,SKC,0.00,VWS V14.01,2013-05-03 12:18:00,
2013-05-03 07:19:00,38.0,29.1,30.36,North,350,0.0,6.0,70,0.00,,SKC,0.00,VWS V14.01,2013-05-03 12:19:00,
2013-05-03 07:20:00,38.0,29.1,30.36,NNW,338,2.0,6.0,70,0.00,,SKC,0.00,VWS V14.01,2013-05-03 12:20:00,
2013-05-03 07:21:00,38.1,29.2,30.36,NW,323,6.0,7.0,70,0.00,,SKC,0.00,VWS V14.01,2013-05-03 12:21:00,
2013-05-03 07:22:00,38.0,29.1,30.36,WNW,299,5.0,7.0,70,0.00,,SKC,0.00,VWS V14.01,2013-05-03 12:22:00,
2013-05-03 07:23:00,38.1,29.2,30.36,NW,326,2.0,8.0,70,0.00,,SKC,0.00,VWS V14.01,2013-05-03 12:23:00,
2013-05-03 07:24:00,38.2,29.3,30.36,NW,317,3.0,6.0,70,0.00,,SKC,0.00,VWS V14.01,2013-05-03 12:24:00,
2013-05-03 07:25:00,38.2,29.3,30.36,NNW,338,4.0,7.0,70,0.00,,SKC,0.00,VWS V14.01,2013-05-03 12:25:00,
2013-05-03 07:26:00,38.3,29.4,30.36,NW,315,4.0,9.0,70,0.00,,SKC,0.00,VWS V14.01,2013-05-03 12:26:00,
2013-05-03 07:27:00,38.3,29.4,30.36,NNW,338,5.0,10.0,70,0.00,,SKC,0.00,VWS V14.01,2013-05-03 12:27:00,
2013-05-03 07:28:00,38.4,29.1,30.36,North,355,3.0,5.0,69,0.00,,SKC,0.00,VWS V14.01,2013-05-03 12:28:00,
2013-05-03 07:29:00,38.3,29.4,30.36,NNW,338,5.0,10.0,70,0.00,,SKC,0.00,VWS V14.01,2013-05-03 12:29:00,
2013-05-03 07:30:00,38.5,29.2,30.36,NNW,327,5.0,8.0,69,0.00,,SKC,0.00,VWS V14.01,2013-05-03 12:30:00,
2013-05-03 07:31:00,38.6,29.3,30.36,NNW,333,6.0,6.0,69,0.00,,SKC,0.00,VWS V14.01,2013-05-03 12:31:00,
2013-05-03 07:32:00,38.6,29.3,30.36,NNW,337,6.0,6.0,69,0.00,,SKC,0.00,VWS V14.01,2013-05-03 12:32:00,
2013-05-03 07:33:00,38.7,29.4,30.36,NNW,342,4.0,10.0,69,0.00,,SKC,0.00,VWS V14.01,2013-05-03 12:33:00,
2013-05-03 07:34:00,38.7,29.4,30.36,NNW,342,4.0,10.0,69,0.00,,SKC,0.00,VWS V14.01,2013-05-03 12:34:00,
2013-05-03 07:35:00,38.9,29.6,30.36,NNW,327,5.0,6.0,69,0.00,,SKC,0.00,VWS V14.01,2013-05-03 12:35:00,
2013-05-03 07:36:00,38.9,29.6,30.36,NNW,327,3.0,5.0,69,0.00,,SKC,0.00,VWS V14.01,2013-05-03 12:36:00,
2013-05-03 07:37:00,39.0,29.7,30.36,NNW,348,4.0,7.0,69,0.00,,SKC,0.00,VWS V14.01,2013-05-03 12:37:00,
2013-05-03 07:38:00,39.1,29.4,30.36,NW,310,2.0,4.0,68,0.00,,SKC,0.00,VWS V14.01,2013-05-03 12:38:00,
2013-05-03 07:39:00,39.1,29.5,30.36,NW,310,2.0,4.0,68,0.00,,SKC,0.00,VWS V14.01,2013-05-03 12:39:00,
2013-05-03 07:40:00,39.2,29.5,30.37,North,355,3.0,9.0,68,0.00,,SKC,0.00,VWS V14.01,2013-05-03 12:40:00,
2013-05-03 07:41:00,39.3,29.6,30.37,NNW,330,6.0,6.0,68,0.00,,SKC,0.00,VWS V14.01,2013-05-03 12:41:00,
2013-05-03 07:42:00,39.4,29.7,30.37,NNW,328,4.0,6.0,68,0.00,,SKC,0.00,VWS V14.01,2013-05-03 12:42:00,
2013-05-03 07:43:00,39.4,29.7,30.37,North,355,10.0,13.0,68,0.00,,SKC,0.00,VWS V14.01,2013-05-03 12:43:00,
2013-05-03 07:44:00,39.4,29.7,30.37,North,355,10.0,13.0,68,0.00,,SKC,0.00,VWS V14.01,2013-05-03 12:44:00,
2013-05-03 07:45:00,39.7,29.7,30.37,NNW,331,6.0,6.0,67,0.00,,SKC,0.00,VWS V14.01,2013-05-03 12:45:00,
2013-05-03 07:46:00,39.7,30.0,30.37,NW,309,0.0,6.0,68,0.00,,SKC,0.00,VWS V14.01,2013-05-03 12:46:00,
2013-05-03 07:47:00,39.8,29.8,30.37,NW,323,6.0,6.0,67,0.00,,SKC,0.00,VWS V14.01,2013-05-03 12:47:00,
2013-05-03 07:48:00,39.9,29.9,30.37,NNW,329,4.0,6.0,67,0.00,,SKC,0.00,VWS V14.01,2013-05-03 12:48:00,
2013-05-03 07:49:00,39.9,29.9,30.37,NNW,329,4.0,6.0,67,0.00,,SKC,0.00,VWS V14.01,2013-05-03 12:49:00,
2013-05-03 07:50:00,40.0,29.9,30.37,NNW,327,3.0,10.0,67,0.00,,SKC,0.00,VWS V14.01,2013-05-03 12:50:00,
2013-05-03 07:51:00,40.1,29.7,30.37,NW,309,2.0,7.0,66,0.00,,SKC,0.00,VWS V14.01,2013-05-03 12:51:00,
2013-05-03 07:52:00,40.2,29.8,30.37,North,350,9.0,11.0,66,0.00,,SKC,0.00,VWS V14.01,2013-05-03 12:52:00,
2013-05-03 07:53:00,40.4,30.0,30.37,NW,319,3.0,9.0,66,0.00,,SKC,0.00,VWS V14.01,2013-05-03 12:53:00,
2013-05-03 07:54:00,40.4,30.0,30.37,NW,319,3.0,9.0,66,0.00,,SKC,0.00,VWS V14.01,2013-05-03 12:54:00,
2013-05-03 07:55:00,40.6,29.8,30.37,North,360,10.0,14.0,65,0.00,,SKC,0.00,VWS V14.01,2013-05-03 12:55:00,
2013-05-03 07:56:00,40.7,29.9,30.37,North,360,6.0,10.0,65,0.00,,SKC,0.00,VWS V14.01,2013-05-03 12:56:00,
2013-05-03 07:57:00,40.9,30.1,30.37,NNW,344,3.0,7.0,65,0.00,,SKC,0.00,VWS V14.01,2013-05-03 12:57:00,
2013-05-03 07:58:00,41.1,30.2,30.37,NNW,341,5.0,6.0,65,0.00,,SKC,0.00,VWS V14.01,2013-05-03 12:58:00,
2013-05-03 07:59:00,41.1,30.2,30.37,NNW,341,5.0,6.0,65,0.00,,SKC,0.00,VWS V14.01,2013-05-03 12:59:00,
2013-05-03 08:00:00,41.3,30.1,30.37,NNW,345,9.0,11.0,64,0.00,,SKC,0.00,VWS V14.01,2013-05-03 13:00:00,
2013-05-03 08:04:00,41.8,29.8,30.38,NNW,337,6.0,13.0,62,0.00,,SKC,0.00,VWS V14.01,2013-05-03 13:04:00,
2013-05-03 08:10:00,42.2,29.7,30.38,North,0,8.0,13.0,61,0.00,,SKC,0.00,VWS V14.01,2013-05-03 13:10:00,
2013-05-03 08:15:00,42.8,30.3,30.38,North,355,6.0,10.0,61,0.00,,SKC,0.00,VWS V14.01,2013-05-03 13:15:00,
2013-05-03 08:20:00,43.2,30.3,30.38,NW,314,3.0,10.0,60,0.00,,SKC,0.00,VWS V14.01,2013-05-03 13:20:00,
2013-05-03 08:25:00,43.5,31.0,30.38,North,351,4.0,10.0,61,0.00,,SKC,0.00,VWS V14.01,2013-05-03 13:25:00,
2013-05-03 08:30:00,43.9,30.5,30.38,NNE,15,9.0,15.0,59,0.00,,SKC,0.00,VWS V14.01,2013-05-03 13:30:00,
2013-05-03 08:35:00,44.1,30.3,30.38,North,5,9.0,12.0,58,0.00,,SKC,0.00,VWS V14.01,2013-05-03 13:35:00,
2013-05-03 08:40:00,44.3,30.5,30.38,NNW,346,7.0,11.0,58,0.00,,SKC,0.00,VWS V14.01,2013-05-03 13:40:00,
2013-05-03 08:45:00,44.3,30.0,30.38,North,360,7.0,13.0,57,0.00,,SKC,0.00,VWS V14.01,2013-05-03 13:45:00,
2013-05-03 08:50:00,44.7,30.4,30.38,NE,53,6.0,21.0,57,0.00,,SKC,0.00,VWS V14.01,2013-05-03 13:50:00,
2013-05-03 08:55:00,45.1,29.9,30.37,North,349,12.0,13.0,55,0.00,,SKC,0.00,VWS V14.01,2013-05-03 13:55:00,
2013-05-03 09:00:00,45.4,30.2,30.38,NNW,331,9.0,10.0,55,0.00,,SKC,0.00,VWS V14.01,2013-05-03 14:00:00,
2013-05-03 09:05:00,46.1,31.7,30.38,NW,326,5.0,6.0,57,0.00,,SKC,0.00,VWS V14.01,2013-05-03 14:05:00,
2013-05-03 09:10:00,46.5,30.3,30.38,NNW,342,5.0,10.0,53,0.00,,SKC,0.00,VWS V14.01,2013-05-03 14:10:00,
2013-05-03 09:15:00,46.7,30.5,30.38,North,351,9.0,12.0,53,0.00,,SKC,0.00,VWS V14.01,2013-05-03 14:15:00,
2013-05-03 09:20:00,46.9,30.2,30.38,NNW,348,13.0,13.0,52,0.00,,SKC,0.00,VWS V14.01,2013-05-03 14:20:00,
2013-05-03 09:25:00,47.1,30.9,30.38,NNW,346,13.0,13.0,53,0.00,,SKC,0.00,VWS V14.01,2013-05-03 14:25:00,
2013-05-03 09:30:00,47.4,30.2,30.38,NNW,330,10.0,15.0,51,0.00,,SKC,0.00,VWS V14.01,2013-05-03 14:30:00,
2013-05-03 09:35:00,47.9,31.1,30.38,North,355,13.0,13.0,52,0.00,,SKC,0.00,VWS V14.01,2013-05-03 14:35:00,
2013-05-03 09:40:00,48.5,31.7,30.38,North,360,11.0,12.0,52,0.00,,SKC,0.00,VWS V14.01,2013-05-03 14:40:00,
2013-05-03 09:45:00,48.6,30.8,30.38,North,355,11.0,11.0,50,0.00,,SKC,0.00,VWS V14.01,2013-05-03 14:45:00,
2013-05-03 09:50:00,49.1,31.3,30.38,North,11,6.0,16.0,50,0.00,,SKC,0.00,VWS V14.01,2013-05-03 14:50:00,
2013-05-03 09:55:00,49.0,30.2,30.38,NNW,329,5.0,5.0,48,0.00,,SKC,0.00,VWS V14.01,2013-05-03 14:55:00,
2013-05-03 10:00:00,49.2,29.9,30.38,NNW,333,13.0,13.0,47,0.00,,SKC,0.00,VWS V14.01,2013-05-03 15:00:00,
2013-05-03 10:05:00,49.4,30.0,30.38,NNE,13,5.0,16.0,47,0.00,,SKC,0.00,VWS V14.01,2013-05-03 15:05:00,
2013-05-03 10:10:00,49.8,29.9,30.38,NNE,30,6.0,16.0,46,0.00,,SKC,0.00,VWS V14.01,2013-05-03 15:10:00,
2013-05-03 10:15:00,50.1,29.6,30.38,NNE,19,11.0,17.0,45,0.00,,SKC,0.00,VWS V14.01,2013-05-03 15:15:00,
2013-05-03 10:20:00,50.3,29.8,30.38,NNW,341,10.0,18.0,45,0.00,,SKC,0.00,VWS V14.01,2013-05-03 15:20:00,
2013-05-03 10:25:00,50.5,30.5,30.38,North,10,13.0,15.0,46,0.00,,SKC,0.00,VWS V14.01,2013-05-03 15:25:00,
2013-05-03 10:30:00,50.4,30.4,30.38,North,355,11.0,12.0,46,0.00,,SKC,0.00,VWS V14.01,2013-05-03 15:30:00,
2013-05-03 10:35:00,50.9,31.4,30.38,NNE,14,6.0,12.0,47,0.00,,SKC,0.00,VWS V14.01,2013-05-03 15:35:00,
2013-05-03 10:40:00,51.2,30.0,30.37,North,360,14.0,19.0,44,0.00,,SKC,0.00,VWS V14.01,2013-05-03 15:40:00,
2013-05-03 10:45:00,51.2,29.5,30.37,NNW,344,13.0,21.0,43,0.00,,SKC,0.00,VWS V14.01,2013-05-03 15:45:00,
2013-05-03 10:50:00,51.3,30.7,30.37,NNE,18,21.0,21.0,45,0.00,,SKC,0.00,VWS V14.01,2013-05-03 15:50:00,
2013-05-03 10:55:00,51.7,32.1,30.38,NNE,15,11.0,16.0,47,0.00,,SKC,0.00,VWS V14.01,2013-05-03 15:55:00,
2013-05-03 11:00:00,52.3,31.0,30.37,North,5,8.0,17.0,44,0.00,,SKC,0.00,VWS V14.01,2013-05-03 16:00:00,
2013-05-03 11:05:00,52.4,31.1,30.37,North,360,11.0,17.0,44,0.00,,SKC,0.00,VWS V14.01,2013-05-03 16:05:00,
2013-05-03 11:10:00,52.3,31.0,30.36,North,355,12.0,15.0,44,0.00,,SKC,0.00,VWS V14.01,2013-05-03 16:10:00,
2013-05-03 11:15:00,52.4,30.6,30.36,North,355,10.0,10.0,43,0.00,,SKC,0.00,VWS V14.01,2013-05-03 16:15:00,
2013-05-03 11:20:00,52.7,31.4,30.36,North,360,4.0,16.0,44,0.00,,SKC,0.00,VWS V14.01,2013-05-03 16:20:00,
2013-05-03 11:25:00,53.3,31.4,30.36,NNW,338,9.0,9.0,43,0.00,,SKC,0.00,VWS V14.01,2013-05-03 16:25:00,
2013-05-03 11:30:00,53.5,31.0,30.36,NNE,13,14.0,14.0,42,0.00,,SKC,0.00,VWS V14.01,2013-05-03 16:30:00,
2013-05-03 11:35:00,53.7,30.6,30.36,North,355,5.0,15.0,41,0.00,,SKC,0.00,VWS V14.01,2013-05-03 16:35:00,
2013-05-03 11:40:00,53.9,30.8,30.36,North,360,8.0,14.0,41,0.00,,SKC,0.00,VWS V14.01,2013-05-03 16:40:00,
2013-05-03 11:45:00,54.4,31.8,30.36,North,360,6.0,10.0,42,0.00,,SKC,0.00,VWS V14.01,2013-05-03 16:45:00,
2013-05-03 11:50:00,54.7,32.1,30.35,NNE,19,9.0,12.0,42,0.00,,SKC,0.00,VWS V14.01,2013-05-03 16:50:00,
2013-05-03 11:55:00,54.7,31.5,30.35,NNW,346,4.0,10.0,41,0.00,,SKC,0.00,VWS V14.01,2013-05-03 16:55:00,
2013-05-03 12:00:00,54.8,31.0,30.35,NW,319,13.0,13.0,40,0.00,,SKC,0.00,VWS V14.01,2013-05-03 17:00:00,
2013-05-03 12:05:00,55.0,30.5,30.35,NNE,22,15.0,16.0,39,0.00,,SKC,0.00,VWS V14.01,2013-05-03 17:05:00,
2013-05-03 12:10:00,55.4,31.5,30.34,NNE,17,13.0,13.0,40,0.00,,SKC,0.00,VWS V14.01,2013-05-03 17:10:00,
2013-05-03 12:15:00,55.5,30.3,30.34,North,360,10.0,18.0,38,0.00,,SKC,0.00,VWS V14.01,2013-05-03 17:15:00,
2013-05-03 12:20:00,55.3,30.8,30.34,NNE,25,9.0,17.0,39,0.00,,SKC,0.00,VWS V14.01,2013-05-03 17:20:00,
2013-05-03 12:25:00,55.4,30.2,30.33,NNW,344,9.0,12.0,38,0.00,,SKC,0.00,VWS V14.01,2013-05-03 17:25:00,
2013-05-03 12:30:00,56.0,31.4,30.33,North,355,3.0,3.0,39,0.00,,SKC,0.00,VWS V14.01,2013-05-03 17:30:00,
2013-05-03 12:35:00,56.4,31.1,30.33,North,355,9.0,14.0,38,0.00,,SKC,0.00,VWS V14.01,2013-05-03 17:35:00,
2013-05-03 12:40:00,56.0,30.8,30.33,North,360,6.0,12.0,38,0.00,,SKC,0.00,VWS V14.01,2013-05-03 17:40:00,
2013-05-03 12:45:00,56.4,30.5,30.32,North,355,10.0,17.0,37,0.00,,SKC,0.00,VWS V14.01,2013-05-03 17:45:00,
2013-05-03 12:50:00,56.4,31.8,30.32,NNE,22,15.0,16.0,39,0.00,,SKC,0.00,VWS V14.01,2013-05-03 17:50:00,
2013-05-03 12:55:00,56.7,31.4,30.32,NNW,341,5.0,12.0,38,0.00,,SKC,0.00,VWS V14.01,2013-05-03 17:55:00,
2013-05-03 13:00:00,57.1,32.4,30.31,North,10,7.0,11.0,39,0.00,,SKC,0.00,VWS V14.01,2013-05-03 18:00:00,
2013-05-03 13:05:00,57.0,31.0,30.30,North,355,11.0,16.0,37,0.00,,SKC,0.00,VWS V14.01,2013-05-03 18:05:00,
2013-05-03 13:10:00,57.4,31.4,30.30,North,360,10.0,12.0,37,0.00,,SKC,0.00,VWS V14.01,2013-05-03 18:10:00,
2013-05-03 13:15:00,57.5,31.5,30.30,North,10,6.0,13.0,37,0.00,,SKC,0.00,VWS V14.01,2013-05-03 18:15:00,
2013-05-03 13:20:00,58.0,33.2,30.29,NNW,331,5.0,10.0,39,0.00,,SKC,0.00,VWS V14.01,2013-05-03 18:20:00,
2013-05-03 13:25:00,57.9,30.4,30.29,NNW,337,13.0,18.0,35,0.00,,SKC,0.00,VWS V14.01,2013-05-03 18:25:00,
2013-05-03 13:30:00,57.5,30.8,30.28,ENE,57,8.0,13.0,36,0.00,,SKC,0.00,VWS V14.01,2013-05-03 18:30:00,
2013-05-03 13:35:00,57.6,31.5,30.28,WNW,302,15.0,15.0,37,0.00,,SKC,0.00,VWS V14.01,2013-05-03 18:35:00,
2013-05-03 13:40:00,58.0,31.2,30.28,NNE,19,6.0,13.0,36,0.00,,SKC,0.00,VWS V14.01,2013-05-03 18:40:00,
2013-05-03 13:45:00,58.2,30.7,30.28,NNW,336,5.0,13.0,35,0.00,,SKC,0.00,VWS V14.01,2013-05-03 18:45:00,
2013-05-03 13:50:00,58.3,31.5,30.27,North,360,10.0,15.0,36,0.00,,SKC,0.00,VWS V14.01,2013-05-03 18:50:00,
2013-05-03 13:55:00,58.7,32.5,30.27,NNW,340,7.0,7.0,37,0.00,,SKC,0.00,VWS V14.01,2013-05-03 18:55:00,
2013-05-03 14:00:00,58.7,30.4,30.26,North,5,9.0,15.0,34,0.00,,SKC,0.00,VWS V14.01,2013-05-03 19:00:00,
2013-05-03 14:05:00,58.6,31.0,30.26,North,5,10.0,17.0,35,0.00,,SKC,0.00,VWS V14.01,2013-05-03 19:05:00,
2013-05-03 14:10:00,59.0,31.4,30.26,NNW,327,4.0,13.0,35,0.00,,SKC,0.00,VWS V14.01,2013-05-03 19:10:00,
2013-05-03 14:15:00,59.0,31.4,30.26,NNW,346,4.0,6.0,35,0.00,,SKC,0.00,VWS V14.01,2013-05-03 19:15:00,
2013-05-03 14:20:00,59.0,31.4,30.25,NNW,331,7.0,11.0,35,0.00,,SKC,0.00,VWS V14.01,2013-05-03 19:20:00,
2013-05-03 14:25:00,59.0,31.4,30.25,WNW,296,4.0,4.0,35,0.00,,SKC,0.00,VWS V14.01,2013-05-03 19:25:00,
2013-05-03 14:30:00,59.4,33.1,30.25,West,261,1.0,5.0,37,0.00,,SKC,0.00,VWS V14.01,2013-05-03 19:30:00,
2013-05-03 14:35:00,60.0,33.0,30.24,NNW,345,5.0,7.0,36,0.00,,SKC,0.00,VWS V14.01,2013-05-03 19:35:00,
2013-05-03 14:40:00,60.0,29.3,30.24,NNW,330,2.0,6.0,31,0.00,,SKC,0.00,VWS V14.01,2013-05-03 19:40:00,
2013-05-03 14:45:00,59.8,32.1,30.24,NW,310,5.0,9.0,35,0.00,,SKC,0.00,VWS V14.01,2013-05-03 19:45:00,
2013-05-03 14:50:00,60.0,33.0,30.24,NW,317,5.0,6.0,36,0.00,,SKC,0.00,VWS V14.01,2013-05-03 19:50:00,
2013-05-03 14:55:00,60.5,29.7,30.23,NE,45,11.0,11.0,31,0.00,,SKC,0.00,VWS V14.01,2013-05-03 19:55:00,
2013-05-03 15:00:00,60.2,30.2,30.23,NNE,16,17.0,17.0,32,0.00,,SKC,0.00,VWS V14.01,2013-05-03 20:00:00,
2013-05-03 15:05:00,60.2,29.5,30.22,NE,36,6.0,10.0,31,0.00,,SKC,0.00,VWS V14.01,2013-05-03 20:05:00,
2013-05-03 15:10:00,60.0,30.8,30.22,NNE,22,10.0,12.0,33,0.00,,SKC,0.00,VWS V14.01,2013-05-03 20:10:00,
2013-05-03 15:15:00,60.5,30.5,30.22,NNE,18,13.0,16.0,32,0.00,,SKC,0.00,VWS V14.01,2013-05-03 20:15:00,
2013-05-03 15:20:00,60.5,30.5,30.21,NE,42,11.0,16.0,32,0.00,,SKC,0.00,VWS V14.01,2013-05-03 20:20:00,
2013-05-03 15:25:00,60.4,31.2,30.21,West,273,6.0,6.0,33,0.00,,SKC,0.00,VWS V14.01,2013-05-03 20:25:00,
2013-05-03 15:30:00,60.9,32.4,30.21,NNE,24,16.0,17.0,34,0.00,,SKC,0.00,VWS V14.01,2013-05-03 20:30:00,
2013-05-03 15:35:00,61.2,31.1,30.20,NNW,348,2.0,9.0,32,0.00,,SKC,0.00,VWS V14.01,2013-05-03 20:35:00,
2013-05-03 15:40:00,61.3,30.4,30.20,NW,313,0.0,11.0,31,0.00,,SKC,0.00,VWS V14.01,2013-05-03 20:40:00,
2013-05-03 15:45:00,61.5,30.6,30.20,SW,223,2.0,7.0,31,0.00,,SKC,0.00,VWS V14.01,2013-05-03 20:45:00,
2013-05-03 15:50:00,61.4,30.5,30.20,NW,320,0.0,7.0,31,0.00,,SKC,0.00,VWS V14.01,2013-05-03 20:50:00,
2013-05-03 15:55:00,61.9,31.0,30.19,North,11,2.0,7.0,31,0.00,,SKC,0.00,VWS V14.01,2013-05-03 20:55:00,
2013-05-03 16:00:00,62.1,30.3,30.19,North,10,6.0,15.0,30,0.00,,SKC,0.00,VWS V14.01,2013-05-03 21:00:00,
2013-05-03 16:05:00,61.8,30.9,30.18,NE,43,3.0,10.0,31,0.00,,SKC,0.00,VWS V14.01,2013-05-03 21:05:00,
2013-05-03 16:10:00,61.6,30.7,30.18,North,351,4.0,12.0,31,0.00,,SKC,0.00,VWS V14.01,2013-05-03 21:10:00,
2013-05-03 16:15:00,62.2,32.8,30.18,WNW,299,7.0,9.0,33,0.00,,SKC,0.00,VWS V14.01,2013-05-03 21:15:00,
2013-05-03 16:20:00,62.0,31.0,30.17,SSW,209,2.0,6.0,31,0.00,,SKC,0.00,VWS V14.01,2013-05-03 21:20:00,
2013-05-03 16:25:00,61.7,30.8,30.17,NW,315,6.0,6.0,31,0.00,,SKC,0.00,VWS V14.01,2013-05-03 21:25:00,
2013-05-03 16:30:00,61.9,31.0,30.16,West,279,3.0,4.0,31,0.00,,SKC,0.00,VWS V14.01,2013-05-03 21:30:00,
2013-05-03 16:35:00,62.5,30.7,30.16,NNW,345,4.0,5.0,30,0.00,,SKC,0.00,VWS V14.01,2013-05-03 21:35:00,
2013-05-03 16:40:00,62.8,31.7,30.16,North,350,7.0,12.0,31,0.00,,SKC,0.00,VWS V14.01,2013-05-03 21:40:00,
2013-05-03 16:45:00,62.7,30.8,30.16,NW,304,5.0,7.0,30,0.00,,SKC,0.00,VWS V14.01,2013-05-03 21:45:00,
2013-05-03 16:50:00,62.5,29.8,30.16,NW,309,2.0,3.0,29,0.00,,SKC,0.00,VWS V14.01,2013-05-03 21:50:00,
2013-05-03 16:55:00,62.4,31.4,30.15,NNW,344,5.0,7.0,31,0.00,,SKC,0.00,VWS V14.01,2013-05-03 21:55:00,
2013-05-03 17:00:00,62.5,30.7,30.15,North,5,11.0,13.0,30,0.00,,SKC,0.00,VWS V14.01,2013-05-03 22:00:00,
2013-05-03 17:05:00,62.2,29.6,30.15,NNE,18,2.0,6.0,29,0.00,,SKC,0.00,VWS V14.01,2013-05-03 22:05:00,
2013-05-03 17:10:00,62.1,30.3,30.15,North,360,4.0,10.0,30,0.00,,SKC,0.00,VWS V14.01,2013-05-03 22:10:00,
2013-05-03 17:15:00,62.1,29.5,30.14,NNW,346,3.0,11.0,29,0.00,,SKC,0.00,VWS V14.01,2013-05-03 22:15:00,
2013-05-03 17:20:00,62.0,29.4,30.14,NNW,340,6.0,6.0,29,0.00,,SKC,0.00,VWS V14.01,2013-05-03 22:20:00,
2013-05-03 17:25:00,62.3,30.5,30.14,North,5,9.0,9.0,30,0.00,,SKC,0.00,VWS V14.01,2013-05-03 22:25:00,
2013-05-03 17:30:00,62.8,30.1,30.14,NW,322,3.0,9.0,29,0.00,,SKC,0.00,VWS V14.01,2013-05-03 22:30:00,
2013-05-03 17:35:00,63.2,29.6,30.13,NNE,32,11.0,13.0,28,0.00,,SKC,0.00,VWS V14.01,2013-05-03 22:35:00,
2013-05-03 17:40:00,62.7,30.0,30.13,North,11,5.0,10.0,29,0.00,,SKC,0.00,VWS V14.01,2013-05-03 22:40:00,
2013-05-03 17:45:00,62.3,29.7,30.13,NW,319,0.0,5.0,29,0.00,,SKC,0.00,VWS V14.01,2013-05-03 22:45:00,
2013-05-03 17:50:00,62.4,29.8,30.13,WNW,289,3.0,4.0,29,0.00,,SKC,0.00,VWS V14.01,2013-05-03 22:50:00,
2013-05-03 17:55:00,62.6,29.9,30.12,NW,321,6.0,9.0,29,0.00,,SKC,0.00,VWS V14.01,2013-05-03 22:55:00,
2013-05-03 18:00:00,62.4,30.6,30.12,NNE,17,4.0,9.0,30,0.00,,SKC,0.00,VWS V14.01,2013-05-03 23:00:00,
2013-05-03 18:05:00,62.3,30.5,30.12,NW,309,2.0,8.0,30,0.00,,SKC,0.00,VWS V14.01,2013-05-03 23:05:00,
2013-05-03 18:10:00,62.2,30.4,30.12,North,350,3.0,10.0,30,0.00,,SKC,0.00,VWS V14.01,2013-05-03 23:10:00,
2013-05-03 18:15:00,62.3,31.3,30.12,North,355,3.0,6.0,31,0.00,,SKC,0.00,VWS V14.01,2013-05-03 23:15:00,
2013-05-03 18:20:00,62.3,30.5,30.12,NNW,338,1.0,1.0,30,0.00,,SKC,0.00,VWS V14.01,2013-05-03 23:20:00,
2013-05-03 18:25:00,62.4,30.6,30.11,North,5,6.0,7.0,30,0.00,,SKC,0.00,VWS V14.01,2013-05-03 23:25:00,
2013-05-03 18:30:00,62.4,30.6,30.11,North,355,2.0,3.0,30,0.00,,SKC,0.00,VWS V14.01,2013-05-03 23:30:00,
2013-05-03 18:35:00,62.3,28.8,30.11,North,360,5.0,6.0,28,0.00,,SKC,0.00,VWS V14.01,2013-05-03 23:35:00,
2013-05-03 18:40:00,62.1,29.5,30.11,NNW,338,5.0,10.0,29,0.00,,SKC,0.00,VWS V14.01,2013-05-03 23:40:00,
2013-05-03 18:45:00,61.9,30.1,30.11,North,360,5.0,9.0,30,0.00,,SKC,0.00,VWS V14.01,2013-05-03 23:45:00,
2013-05-03 18:50:00,61.7,30.8,30.11,NNE,13,7.0,7.0,31,0.00,,SKC,0.00,VWS V14.01,2013-05-03 23:50:00,
2013-05-03 18:55:00,61.5,29.8,30.11,NNE,17,3.0,4.0,30,0.00,,SKC,0.00,VWS V14.01,2013-05-03 23:55:00,
2013-05-03 19:00:00,61.4,29.7,30.11,NE,39,4.0,6.0,30,0.00,,SKC,0.00,VWS V14.01,2013-05-04 00:00:00,
2013-05-03 19:05:00,61.4,31.3,30.10,North,349,4.0,7.0,32,0.00,,SKC,0.00,VWS V14.01,2013-05-04 00:05:00,
2013-05-03 19:10:00,61.2,29.5,30.10,NNE,19,6.0,7.0,30,0.00,,SKC,0.00,VWS V14.01,2013-05-04 00:10:00,
2013-05-03 19:15:00,60.9,30.1,30.10,North,11,1.0,2.0,31,0.00,,SKC,0.00,VWS V14.01,2013-05-04 00:15:00,
2013-05-03 19:20:00,60.8,30.8,30.10,NNE,21,0.0,1.0,32,0.00,,SKC,0.00,VWS V14.01,2013-05-04 00:20:00,
2013-05-03 19:25:00,60.9,30.9,30.10,North,355,0.0,2.0,32,0.00,,SKC,0.00,VWS V14.01,2013-05-04 00:25:00,
2013-05-03 19:30:00,60.8,30.8,30.10,North,360,0.0,1.0,32,0.00,,SKC,0.00,VWS V14.01,2013-05-04 00:30:00,
2013-05-03 19:35:00,60.4,29.6,30.10,North,351,3.0,7.0,31,0.00,,SKC,0.00,VWS V14.01,2013-05-04 00:35:00,
2013-05-03 19:40:00,60.0,29.3,30.10,NNE,33,4.0,4.0,31,0.00,,SKC,0.00,VWS V14.01,2013-05-04 00:40:00,
2013-05-03 19:45:00,59.5,30.4,30.10,NNE,28,1.0,2.0,33,0.00,,SKC,0.00,VWS V14.01,2013-05-04 00:45:00,
2013-05-03 19:50:00,59.0,30.0,30.10,NNE,21,0.0,2.0,33,0.00,,SKC,0.00,VWS V14.01,2013-05-04 00:50:00,
2013-05-03 19:55:00,58.6,30.3,30.10,NNE,21,0.0,2.0,34,0.00,,SKC,0.00,VWS V14.01,2013-05-04 00:55:00,
2013-05-03 20:00:00,58.1,30.6,30.10,NNE,22,0.0,0.0,35,0.00,,SKC,0.00,VWS V14.01,2013-05-04 01:00:00,
2013-05-03 20:05:00,57.6,30.2,30.10,NNE,22,0.0,0.0,35,0.00,,SKC,0.00,VWS V14.01,2013-05-04 01:05:00,
2013-05-03 20:10:00,57.2,29.1,30.10,NNE,22,0.0,0.0,34,0.00,,SKC,0.00,VWS V14.01,2013-05-04 01:10:00,
2013-05-03 20:15:00,56.8,29.5,30.11,NNE,22,0.0,0.0,35,0.00,,SKC,0.00,VWS V14.01,2013-05-04 01:15:00,
2013-05-03 20:20:00,56.4,29.8,30.11,NNE,22,0.0,0.0,36,0.00,,SKC,0.00,VWS V14.01,2013-05-04 01:20:00,
2013-05-03 20:25:00,55.8,29.9,30.11,NNE,21,0.0,0.0,37,0.00,,SKC,0.00,VWS V14.01,2013-05-04 01:25:00,
2013-05-03 20:30:00,55.2,29.4,30.11,NNE,21,0.0,0.0,37,0.00,,SKC,0.00,VWS V14.01,2013-05-04 01:30:00,
2013-05-03 20:35:00,54.6,30.2,30.11,NNE,21,0.0,0.0,39,0.00,,SKC,0.00,VWS V14.01,2013-05-04 01:35:00,
2013-05-03 20:40:00,54.1,30.3,30.11,NNE,22,0.0,0.0,40,0.00,,SKC,0.00,VWS V14.01,2013-05-04 01:40:00,
2013-05-03 20:45:00,53.5,29.8,30.11,NNE,22,0.0,0.0,40,0.00,,SKC,0.00,VWS V14.01,2013-05-04 01:45:00,
2013-05-03 20:50:00,52.9,31.6,30.11,NNE,21,0.0,0.0,44,0.00,,SKC,0.00,VWS V14.01,2013-05-04 01:50:00,
2013-05-03 20:55:00,52.1,31.4,30.12,NNE,22,0.0,0.0,45,0.00,,SKC,0.00,VWS V14.01,2013-05-04 01:55:00,
2013-05-03 21:00:00,51.5,32.0,30.12,NNE,21,0.0,0.0,47,0.00,,SKC,0.00,VWS V14.01,2013-05-04 02:00:00,
2013-05-03 21:05:00,50.9,31.4,30.12,NNE,22,0.0,0.0,47,0.00,,SKC,0.00,VWS V14.01,2013-05-04 02:05:00,
2013-05-03 21:10:00,50.5,30.5,30.12,NNE,21,0.0,0.0,46,0.00,,SKC,0.00,VWS V14.01,2013-05-04 02:10:00,
2013-05-03 21:15:00,50.3,30.3,30.12,NNE,22,0.0,0.0,46,0.00,,SKC,0.00,VWS V14.01,2013-05-04 02:15:00,
2013-05-03 21:20:00,50.1,30.7,30.11,NNE,22,0.0,0.0,47,0.00,,SKC,0.00,VWS V14.01,2013-05-04 02:20:00,
2013-05-03 21:25:00,49.9,31.0,30.11,NNE,22,0.0,0.0,48,0.00,,SKC,0.00,VWS V14.01,2013-05-04 02:25:00,
2013-05-03 21:30:00,49.5,31.1,30.12,NNE,22,0.0,0.0,49,0.00,,SKC,0.00,VWS V14.01,2013-05-04 02:30:00,
2013-05-03 21:35:00,49.1,30.8,30.12,NNE,21,0.0,0.0,49,0.00,,SKC,0.00,VWS V14.01,2013-05-04 02:35:00,
2013-05-03 21:40:00,48.6,30.8,30.13,NNE,22,0.0,0.0,50,0.00,,SKC,0.00,VWS V14.01,2013-05-04 02:40:00,
2013-05-03 21:45:00,48.5,31.2,30.13,NNE,22,0.0,0.0,51,0.00,,SKC,0.00,VWS V14.01,2013-05-04 02:45:00,
2013-05-03 21:50:00,48.3,31.0,30.12,NNE,21,1.0,2.0,51,0.00,,SKC,0.00,VWS V14.01,2013-05-04 02:50:00,
2013-05-03 21:55:00,48.2,31.4,30.13,NNE,21,3.0,3.0,52,0.00,,SKC,0.00,VWS V14.01,2013-05-04 02:55:00,
2013-05-03 22:00:00,47.8,31.0,30.12,NNE,22,2.0,2.0,52,0.00,,SKC,0.00,VWS V14.01,2013-05-04 03:00:00,
2013-05-03 22:05:00,47.6,30.4,30.12,NNE,22,2.0,2.0,51,0.00,,SKC,0.00,VWS V14.01,2013-05-04 03:05:00,
2013-05-03 22:10:00,47.6,30.4,30.12,NNE,21,1.0,2.0,51,0.00,,SKC,0.00,VWS V14.01,2013-05-04 03:10:00,
2013-05-03 22:15:00,47.9,29.7,30.12,NNE,22,0.0,0.0,49,0.00,,SKC,0.00,VWS V14.01,2013-05-04 03:15:00,
2013-05-03 22:20:00,48.2,30.0,30.12,NNE,22,0.0,0.0,49,0.00,,SKC,0.00,VWS V14.01,2013-05-04 03:20:00,
2013-05-03 22:25:00,48.0,30.8,30.12,NNE,22,0.0,0.0,51,0.00,,SKC,0.00,VWS V14.01,2013-05-04 03:25:00,
2013-05-03 22:30:00,47.2,30.5,30.11,NNE,22,0.0,0.0,52,0.00,,SKC,0.00,VWS V14.01,2013-05-04 03:30:00,
2013-05-03 22:35:00,45.6,30.4,30.12,NNW,329,1.0,2.0,55,0.00,,SKC,0.00,VWS V14.01,2013-05-04 03:35:00,
2013-05-03 22:40:00,45.0,30.7,30.11,NNW,329,0.0,0.0,57,0.00,,SKC,0.00,VWS V14.01,2013-05-04 03:40:00,
2013-05-03 22:45:00,44.6,30.3,30.11,NNW,329,0.0,0.0,57,0.00,,SKC,0.00,VWS V14.01,2013-05-04 03:45:00,
2013-05-03 22:50:00,44.6,30.3,30.11,NNW,329,0.0,0.0,57,0.00,,SKC,0.00,VWS V14.01,2013-05-04 03:50:00,
2013-05-03 22:55:00,44.8,30.1,30.11,NNW,329,0.0,1.0,56,0.00,,SKC,0.00,VWS V14.01,2013-05-04 03:55:00,
2013-05-03 23:00:00,45.0,29.4,30.11,NNW,329,1.0,2.0,54,0.00,,SKC,0.00,VWS V14.01,2013-05-04 04:00:00,
2013-05-03 23:01:00,45.0,29.4,30.11,NNW,329,0.0,1.0,54,0.00,,SKC,0.00,VWS V14.01,2013-05-04 04:01:00,
2013-05-03 23:06:00,45.1,29.0,30.11,NNW,329,0.0,1.0,53,0.00,,SKC,0.00,VWS V14.01,2013-05-04 04:06:00,
2013-05-03 23:11:00,45.6,28.5,30.11,NNW,329,0.0,0.0,51,0.00,,SKC,0.00,VWS V14.01,2013-05-04 04:11:00,
2013-05-03 23:16:00,45.9,28.8,30.10,NNW,329,0.0,1.0,51,0.00,,SKC,0.00,VWS V14.01,2013-05-04 04:16:00,
2013-05-03 23:21:00,45.8,28.7,30.10,NNW,329,0.0,0.0,51,0.00,,SKC,0.00,VWS V14.01,2013-05-04 04:21:00,
2013-05-03 23:26:00,45.6,28.5,30.10,NNW,329,0.0,0.0,51,0.00,,SKC,0.00,VWS V14.01,2013-05-04 04:26:00,
2013-05-03 23:31:00,45.1,28.5,30.10,NNW,329,0.0,0.0,52,0.00,,SKC,0.00,VWS V14.01,2013-05-04 04:31:00,
2013-05-03 23:36:00,44.5,29.4,30.10,NNW,329,2.0,2.0,55,0.00,,SKC,0.00,VWS V14.01,2013-05-04 04:36:00,
2013-05-03 23:41:00,44.2,29.1,30.10,NNW,327,0.0,1.0,55,0.00,,SKC,0.00,VWS V14.01,2013-05-04 04:41:00,
2013-05-03 23:46:00,44.1,29.9,30.10,NNW,327,1.0,2.0,57,0.00,,SKC,0.00,VWS V14.01,2013-05-04 04:46:00,
2013-05-03 23:51:00,43.7,29.5,30.10,NNW,327,0.0,0.0,57,0.00,,SKC,0.00,VWS V14.01,2013-05-04 04:51:00,
2013-05-03 23:56:00,43.2,29.4,30.10,WSW,256,0.0,0.0,58,0.00,,SKC,0.00,VWS V14.01,2013-05-04 04:56:00,